DLH564 KDFW-EDDF

Flight info

Callsign DLH564
Flight time 9h 16m
Altitude 37000
Route AKUNA9 MLC DCT SGF DCT KK51I DCT KK60K DCT KG69M DCT NOSIK DCT ROSVO DCT IGSAS DCT 52N060W DCT LOMSI/M079F390 DCT 55N050W 55N040W 55N030W 55N020W DCT RESNO DCT NETKI/N0457F390 DCT MORAG DCT NUCHU L607 KONAN UL607 SPI T180 NIVNU/N0356F230 T847 IMCOM IMCOM1B
Aircraft A343/H-SDE2E3FGHIJ3J5M1P2RWXYZ/LB1D1

Departure

Time 2026-04-17 13:39
Airport Dallas Fort Worth International Airport (KDFW)

Arrival

Time 2026-04-17 22:56
Airport Frankfurt Main Airport (EDDF)
Time Latitude Longitude Altitude Speed Heading
2026-04-17 13:16 32.90190 -97.03641 591 ft 0 kts 328°
2026-04-17 13:26 32.90176 -97.03631 591 ft 4 kts 328°
2026-04-17 13:26 32.90153 -97.03617 591 ft 4 kts 354°
2026-04-17 13:26 32.90133 -97.03622 591 ft 4 kts 65°
2026-04-17 13:27 32.90129 -97.03645 591 ft 4 kts 82°
2026-04-17 13:27 32.90127 -97.03662 591 ft 0 kts 82°
2026-04-17 13:33 32.90128 -97.03647 591 ft 4 kts 84°
2026-04-17 13:33 32.90132 -97.03607 591 ft 6 kts 83°
2026-04-17 13:33 32.90133 -97.03545 591 ft 9 kts 95°
2026-04-17 13:33 32.90115 -97.03470 591 ft 10 kts 102°
2026-04-17 13:34 32.90109 -97.03377 590 ft 13 kts 90°
2026-04-17 13:34 32.90174 -97.03314 589 ft 15 kts
2026-04-17 13:34 32.90294 -97.03311 588 ft 19 kts 359°
2026-04-17 13:34 32.90441 -97.03312 589 ft 23 kts
2026-04-17 13:35 32.90617 -97.03312 589 ft 27 kts
2026-04-17 13:35 32.90809 -97.03308 589 ft 28 kts
2026-04-17 13:35 32.90998 -97.03298 589 ft 26 kts 15°
2026-04-17 13:35 32.91166 -97.03268 586 ft 16 kts 358°
2026-04-17 13:36 32.91274 -97.03271 585 ft 15 kts 360°
2026-04-17 13:36 32.91384 -97.03271 586 ft 17 kts 360°
2026-04-17 13:36 32.91515 -97.03268 581 ft 19 kts
2026-04-17 13:36 32.91559 -97.03193 584 ft 9 kts 86°
2026-04-17 13:37 32.91559 -97.03113 581 ft 8 kts 90°
2026-04-17 13:37 32.91559 -97.03110 581 ft 0 kts 90°
2026-04-17 13:37 32.91559 -97.03104 579 ft 3 kts 90°
2026-04-17 13:38 32.91559 -97.03059 579 ft 9 kts 91°
2026-04-17 13:38 32.91514 -97.02996 585 ft 11 kts 165°
2026-04-17 13:38 32.91423 -97.02989 583 ft 15 kts 180°
2026-04-17 13:38 32.91159 -97.02991 583 ft 68 kts 180°
2026-04-17 13:39 32.90475 -97.02994 580 ft 128 kts 180°
2026-04-17 13:39 32.89417 -97.02997 617 ft 174 kts 179°
2026-04-17 13:39 32.88120 -97.02989 995 ft 195 kts 178°
2026-04-17 13:39 32.86712 -97.02976 1533 ft 211 kts 181°
2026-04-17 13:40 32.85189 -97.02899 2279 ft 227 kts 172°
2026-04-17 13:40 32.83683 -97.02342 3172 ft 227 kts 162°
2026-04-17 13:40 32.82221 -97.01577 3899 ft 232 kts 161°
2026-04-17 13:40 32.80713 -97.00785 4493 ft 242 kts 162°
2026-04-17 13:41 32.79193 -96.99880 5227 ft 249 kts 151°
2026-04-17 13:41 32.77951 -96.98387 5862 ft 264 kts 125°
2026-04-17 13:41 32.77177 -96.96366 6540 ft 272 kts 115°
2026-04-17 13:41 32.76608 -96.94197 7140 ft 280 kts 103°
2026-04-17 13:42 32.76500 -96.91840 7690 ft 292 kts 91°
2026-04-17 13:42 32.76555 -96.90226 8049 ft 298 kts 90°
2026-04-17 13:42 32.76679 -96.87749 8663 ft 303 kts 87°
2026-04-17 13:42 32.77176 -96.85297 9283 ft 310 kts 64°
2026-04-17 13:43 32.78506 -96.83294 9910 ft 313 kts 35°
2026-04-17 13:43 32.80467 -96.82174 10319 ft 319 kts 12°
2026-04-17 13:43 32.82684 -96.81586 10585 ft 334 kts
2026-04-17 13:43 32.85015 -96.81072 10828 ft 348 kts
2026-04-17 13:44 32.87472 -96.80861 11051 ft 360 kts 357°
2026-04-17 13:44 32.90011 -96.80862 11418 ft 369 kts 356°
2026-04-17 13:44 32.92601 -96.80881 11895 ft 375 kts 356°
2026-04-17 13:44 32.95223 -96.80893 12430 ft 378 kts 356°
2026-04-17 13:45 32.97862 -96.80898 13001 ft 381 kts 356°
2026-04-17 13:45 33.00521 -96.80916 13597 ft 383 kts 354°
2026-04-17 13:45 33.03191 -96.81000 14126 ft 385 kts 354°
2026-04-17 13:45 33.05881 -96.81097 14603 ft 389 kts 354°
2026-04-17 13:46 33.08599 -96.81190 15094 ft 392 kts 354°
2026-04-17 13:46 33.11337 -96.81279 15633 ft 395 kts 354°
2026-04-17 13:46 33.14092 -96.81367 16155 ft 398 kts 353°
2026-04-17 13:46 33.16870 -96.81453 16689 ft 401 kts 353°
2026-04-17 13:47 33.19672 -96.81540 17188 ft 404 kts 353°
2026-04-17 13:47 33.22492 -96.81626 17708 ft 407 kts 353°
2026-04-17 13:47 33.25338 -96.81713 18221 ft 410 kts 353°
2026-04-17 13:47 33.28202 -96.81801 18660 ft 414 kts 353°
2026-04-17 13:48 33.31091 -96.81890 19065 ft 417 kts 353°
2026-04-17 13:48 33.34008 -96.81979 19484 ft 421 kts 353°
2026-04-17 13:48 33.36945 -96.82070 19897 ft 424 kts 353°
2026-04-17 13:48 33.39907 -96.82159 20306 ft 428 kts 353°
2026-04-17 13:49 33.42869 -96.82066 20703 ft 436 kts
2026-04-17 13:49 33.45918 -96.81356 21115 ft 447 kts 12°
2026-04-17 13:49 33.48794 -96.79962 21520 ft 456 kts 22°
2026-04-17 13:49 33.51620 -96.78194 21885 ft 461 kts 24°
2026-04-17 13:50 33.54460 -96.76355 22246 ft 466 kts 25°
2026-04-17 13:50 33.57320 -96.74503 22643 ft 469 kts 24°
2026-04-17 13:50 33.60202 -96.72643 23030 ft 472 kts 24°
2026-04-17 13:50 33.63106 -96.70771 23404 ft 476 kts 24°
2026-04-17 13:51 33.66028 -96.68890 23739 ft 479 kts 24°
2026-04-17 13:51 33.68971 -96.66995 24047 ft 481 kts 24°
2026-04-17 13:51 33.71932 -96.65087 24369 ft 484 kts 24°
2026-04-17 13:51 33.74901 -96.63173 24684 ft 486 kts 24°
2026-04-17 13:52 33.77890 -96.61246 24965 ft 489 kts 24°
2026-04-17 13:52 33.80893 -96.59308 25255 ft 491 kts 24°
2026-04-17 13:52 33.83914 -96.57357 25550 ft 494 kts 24°
2026-04-17 13:52 33.86944 -96.55398 25887 ft 496 kts 24°
2026-04-17 13:53 33.89991 -96.53427 26195 ft 498 kts 24°
2026-04-17 13:53 33.93048 -96.51448 26487 ft 500 kts 23°
2026-04-17 13:53 33.96119 -96.49458 26774 ft 502 kts 23°
2026-04-17 13:53 33.99205 -96.47456 27055 ft 505 kts 23°
2026-04-17 13:54 34.05396 -96.43427 27687 ft 508 kts 24°
2026-04-17 13:54 34.08422 -96.41183 27946 ft 513 kts 28°
2026-04-17 13:55 34.14374 -96.36353 28422 ft 518 kts 29°
2026-04-17 13:55 34.17364 -96.33910 28659 ft 520 kts 29°
2026-04-17 13:55 34.23381 -96.28995 29124 ft 524 kts 29°
2026-04-17 13:56 34.29444 -96.24037 29576 ft 528 kts 29°
2026-04-17 13:56 34.32490 -96.21544 29835 ft 530 kts 29°
2026-04-17 13:56 34.35546 -96.19039 30087 ft 531 kts 29°
2026-04-17 13:57 34.38610 -96.16526 30268 ft 533 kts 29°
2026-04-17 13:57 34.41682 -96.14004 30467 ft 534 kts 29°
2026-04-17 13:57 34.47853 -96.08932 30845 ft 537 kts 28°
2026-04-17 13:58 34.50937 -96.06392 31165 ft 534 kts 28°
2026-04-17 13:58 34.57065 -96.01339 31737 ft 532 kts 28°
2026-04-17 13:58 34.60087 -95.98846 32006 ft 533 kts 28°
2026-04-17 13:59 34.66214 -95.93783 32452 ft 533 kts 28°
2026-04-17 13:59 34.69280 -95.91246 32690 ft 533 kts 28°
2026-04-17 13:59 34.72337 -95.88714 32934 ft 532 kts 28°
2026-04-17 14:00 34.75396 -95.86177 33141 ft 532 kts 28°
2026-04-17 14:00 34.78456 -95.83636 33372 ft 532 kts 28°
2026-04-17 14:00 34.81513 -95.81098 33582 ft 532 kts 28°
2026-04-17 14:00 34.84566 -95.78561 33793 ft 532 kts 28°
2026-04-17 14:01 34.87607 -95.75984 34017 ft 534 kts 30°
2026-04-17 14:01 34.90579 -95.73256 34165 ft 536 kts 31°
2026-04-17 14:01 34.93512 -95.70447 34319 ft 537 kts 32°
2026-04-17 14:01 34.96424 -95.67621 34610 ft 533 kts 32°
2026-04-17 14:02 34.99322 -95.64815 34834 ft 531 kts 31°
2026-04-17 14:02 35.02227 -95.62029 34935 ft 532 kts 31°
2026-04-17 14:02 35.05146 -95.59252 35087 ft 532 kts 31°
2026-04-17 14:02 35.08065 -95.56488 35249 ft 531 kts 31°
2026-04-17 14:03 35.10989 -95.53727 35392 ft 531 kts 31°
2026-04-17 14:03 35.13909 -95.50970 35583 ft 530 kts 31°
2026-04-17 14:03 35.16822 -95.48215 35795 ft 529 kts 31°
2026-04-17 14:03 35.19735 -95.45458 35903 ft 530 kts 31°
2026-04-17 14:04 35.22648 -95.42699 36032 ft 530 kts 31°
2026-04-17 14:04 35.25560 -95.39938 36171 ft 530 kts 31°
2026-04-17 14:04 35.28473 -95.37172 36282 ft 530 kts 31°
2026-04-17 14:04 35.31383 -95.34402 36430 ft 530 kts 31°
2026-04-17 14:05 35.34291 -95.31630 36585 ft 529 kts 30°
2026-04-17 14:05 35.37189 -95.28868 36791 ft 527 kts 30°
2026-04-17 14:05 35.40085 -95.26108 36945 ft 527 kts 30°
2026-04-17 14:06 35.45879 -95.20581 36946 ft 526 kts 30°
2026-04-17 14:06 35.51644 -95.15066 36959 ft 525 kts 30°
2026-04-17 14:07 35.57405 -95.09547 36961 ft 525 kts 30°
2026-04-17 14:07 35.63117 -95.04065 36955 ft 525 kts 30°
2026-04-17 14:08 35.68876 -94.98525 36955 ft 525 kts 31°
2026-04-17 14:08 35.74620 -94.92986 36957 ft 524 kts 30°
2026-04-17 14:09 35.80341 -94.87460 36953 ft 522 kts 30°
2026-04-17 14:09 35.86046 -94.81945 36950 ft 522 kts 30°
2026-04-17 14:10 35.91761 -94.76409 36954 ft 522 kts 30°
2026-04-17 14:10 35.97469 -94.70866 36954 ft 522 kts 30°
2026-04-17 14:11 36.03176 -94.65313 36972 ft 522 kts 30°
2026-04-17 14:11 36.08881 -94.59752 36982 ft 522 kts 30°
2026-04-17 14:12 36.14588 -94.54177 36985 ft 523 kts 30°
2026-04-17 14:12 36.20297 -94.48592 36992 ft 524 kts 30°
2026-04-17 14:13 36.28873 -94.40184 36980 ft 524 kts 30°
2026-04-17 14:13 36.34588 -94.34564 36983 ft 524 kts 30°
2026-04-17 14:14 36.40298 -94.28940 36996 ft 524 kts 30°
2026-04-17 14:14 36.46013 -94.23299 36995 ft 525 kts 31°
2026-04-17 14:15 36.51724 -94.17651 36997 ft 525 kts 31°
2026-04-17 14:15 36.57384 -94.12039 36958 ft 522 kts 31°
2026-04-17 14:16 36.63062 -94.06404 36943 ft 522 kts 31°
2026-04-17 14:16 36.68736 -94.00762 36980 ft 522 kts 31°
2026-04-17 14:17 36.74415 -93.95105 36959 ft 523 kts 31°
2026-04-17 14:17 36.80098 -93.89431 36957 ft 523 kts 31°
2026-04-17 14:18 36.85781 -93.83745 36956 ft 524 kts 31°
2026-04-17 14:18 36.91458 -93.78052 36950 ft 522 kts 31°
2026-04-17 14:19 36.97114 -93.72369 36943 ft 521 kts 31°
2026-04-17 14:19 37.02758 -93.66690 36941 ft 521 kts 31°
2026-04-17 14:20 37.08403 -93.60999 36938 ft 521 kts 31°
2026-04-17 14:20 37.14045 -93.55299 36945 ft 521 kts 31°
2026-04-17 14:21 37.19686 -93.49590 36968 ft 521 kts 31°
2026-04-17 14:21 37.25346 -93.43852 36951 ft 525 kts 31°
2026-04-17 14:22 37.31026 -93.38079 36917 ft 526 kts 31°
2026-04-17 14:22 37.36704 -93.32291 36922 ft 526 kts 32°
2026-04-17 14:23 37.42208 -93.26156 36929 ft 530 kts 36°
2026-04-17 14:23 37.47604 -93.19810 36924 ft 532 kts 36°
2026-04-17 14:24 37.53038 -93.13474 36925 ft 532 kts 36°
2026-04-17 14:24 37.58498 -93.07175 36920 ft 532 kts 35°
2026-04-17 14:25 37.63963 -93.00884 36923 ft 531 kts 35°
2026-04-17 14:25 37.69402 -92.94609 36926 ft 529 kts 35°
2026-04-17 14:26 37.74832 -92.88333 36923 ft 529 kts 35°
2026-04-17 14:26 37.80228 -92.82080 36921 ft 530 kts 35°
2026-04-17 14:27 37.85653 -92.75778 36951 ft 529 kts 35°
2026-04-17 14:27 37.91109 -92.69428 36938 ft 530 kts 35°
2026-04-17 14:28 37.96526 -92.63109 36927 ft 528 kts 35°
2026-04-17 14:28 38.00999 -92.57878 36950 ft 525 kts 35°
2026-04-17 14:29 38.06369 -92.51593 36948 ft 525 kts 35°
2026-04-17 14:29 38.11734 -92.45302 36949 ft 525 kts 35°
2026-04-17 14:30 38.17102 -92.38993 36981 ft 525 kts 36°
2026-04-17 14:30 38.22452 -92.32686 36940 ft 523 kts 35°
2026-04-17 14:31 38.27781 -92.26394 36931 ft 522 kts 36°
2026-04-17 14:31 38.33086 -92.20115 36929 ft 520 kts 35°
2026-04-17 14:32 38.38386 -92.13834 36925 ft 520 kts 36°
2026-04-17 14:32 38.43681 -92.07545 36926 ft 520 kts 36°
2026-04-17 14:33 38.48972 -92.01248 36925 ft 520 kts 36°
2026-04-17 14:33 38.54197 -91.94832 36924 ft 523 kts 38°
2026-04-17 14:34 38.59274 -91.88166 36929 ft 523 kts 39°
2026-04-17 14:34 38.64318 -91.81511 36955 ft 520 kts 39°
2026-04-17 14:35 38.69331 -91.74958 36927 ft 518 kts 39°
2026-04-17 14:35 38.74386 -91.68375 36927 ft 518 kts 39°
2026-04-17 14:36 38.79442 -91.61782 36930 ft 518 kts 39°
2026-04-17 14:36 38.84490 -91.55180 36925 ft 519 kts 39°
2026-04-17 14:37 38.89535 -91.48566 36942 ft 517 kts 39°
2026-04-17 14:37 38.94544 -91.41981 36928 ft 514 kts 39°
2026-04-17 14:38 38.99540 -91.35403 36930 ft 514 kts 39°
2026-04-17 14:38 39.04532 -91.28818 36926 ft 514 kts 39°
2026-04-17 14:39 39.09520 -91.22223 36924 ft 514 kts 39°
2026-04-17 14:39 39.14504 -91.15619 36931 ft 514 kts 40°
2026-04-17 14:40 39.19466 -91.09027 36927 ft 511 kts 40°
2026-04-17 14:40 39.24404 -91.02452 36927 ft 510 kts 40°
2026-04-17 14:41 39.29338 -90.95873 36927 ft 510 kts 40°
2026-04-17 14:41 39.34269 -90.89283 36933 ft 510 kts 40°
2026-04-17 14:42 39.39162 -90.82728 36939 ft 510 kts 41°
2026-04-17 14:42 39.44079 -90.76126 36939 ft 510 kts 41°
2026-04-17 14:43 39.48988 -90.69520 36946 ft 508 kts 41°
2026-04-17 14:43 39.53911 -90.62881 36948 ft 507 kts 41°
2026-04-17 14:44 39.58763 -90.56326 36962 ft 507 kts 41°
2026-04-17 14:44 39.63643 -90.49717 36942 ft 507 kts 41°
2026-04-17 14:45 39.68517 -90.43102 36955 ft 507 kts 41°
2026-04-17 14:45 39.73422 -90.36431 36966 ft 507 kts 42°
2026-04-17 14:46 39.78245 -90.29855 36963 ft 505 kts 42°
2026-04-17 14:46 39.83086 -90.23242 36962 ft 505 kts 42°
2026-04-17 14:47 39.87924 -90.16618 36961 ft 504 kts 42°
2026-04-17 14:47 39.92751 -90.09995 36956 ft 504 kts 42°
2026-04-17 14:48 39.97580 -90.03355 36951 ft 505 kts 42°
2026-04-17 14:48 40.02428 -89.96740 36956 ft 503 kts 41°
2026-04-17 14:49 40.07397 -89.90337 36958 ft 502 kts 40°
2026-04-17 14:49 40.12389 -89.83966 36945 ft 502 kts 40°
2026-04-17 14:50 40.17358 -89.77561 36949 ft 502 kts 41°
2026-04-17 14:50 40.22309 -89.71129 36956 ft 502 kts 41°
2026-04-17 14:51 40.27254 -89.64682 36954 ft 502 kts 41°
2026-04-17 14:51 40.32194 -89.58228 36956 ft 501 kts 41°
2026-04-17 14:52 40.37128 -89.51769 36968 ft 501 kts 41°
2026-04-17 14:52 40.42058 -89.45303 36958 ft 501 kts 41°
2026-04-17 14:53 40.46988 -89.38821 36965 ft 501 kts 41°
2026-04-17 14:53 40.51914 -89.32332 36962 ft 501 kts 42°
2026-04-17 14:54 40.56836 -89.25832 36956 ft 502 kts 42°
2026-04-17 14:54 40.61755 -89.19325 36962 ft 501 kts 42°
2026-04-17 14:55 40.66669 -89.12808 36964 ft 501 kts 42°
2026-04-17 14:55 40.71578 -89.06282 36971 ft 501 kts 42°
2026-04-17 14:56 40.76453 -88.99786 36978 ft 501 kts 42°
2026-04-17 14:56 40.81356 -88.93241 36983 ft 501 kts 42°
2026-04-17 14:57 40.86254 -88.86687 36987 ft 501 kts 42°
2026-04-17 14:57 40.91148 -88.80126 37000 ft 501 kts 43°
2026-04-17 14:58 40.96034 -88.73558 36995 ft 501 kts 43°
2026-04-17 14:58 41.00913 -88.66984 37001 ft 501 kts 43°
2026-04-17 14:59 41.05791 -88.60397 36993 ft 501 kts 43°
2026-04-17 14:59 41.10666 -88.53801 36992 ft 501 kts 43°
2026-04-17 15:00 41.15537 -88.47194 36979 ft 501 kts 43°
2026-04-17 15:00 41.20416 -88.40560 36975 ft 502 kts 43°
2026-04-17 15:01 41.25298 -88.33909 36970 ft 502 kts 43°
2026-04-17 15:01 41.30174 -88.27252 36974 ft 502 kts 43°
2026-04-17 15:02 41.35043 -88.20589 36981 ft 503 kts 43°
2026-04-17 15:02 41.39915 -88.13905 36975 ft 503 kts 43°
2026-04-17 15:03 41.44787 -88.07205 36971 ft 503 kts 43°
2026-04-17 15:03 41.49564 -88.00374 36996 ft 506 kts 50°
2026-04-17 15:04 41.53531 -87.92608 36995 ft 507 kts 56°
2026-04-17 15:04 41.57292 -87.84631 36992 ft 508 kts 57°
2026-04-17 15:05 41.61013 -87.76611 36980 ft 508 kts 57°
2026-04-17 15:05 41.64742 -87.68586 36980 ft 508 kts 56°
2026-04-17 15:06 41.68447 -87.60621 36982 ft 507 kts 56°
2026-04-17 15:06 41.72173 -87.52605 36998 ft 507 kts 56°
2026-04-17 15:07 41.75892 -87.44582 37008 ft 507 kts 56°
2026-04-17 15:07 41.79607 -87.36544 37001 ft 507 kts 56°
2026-04-17 15:08 41.83314 -87.28500 37003 ft 507 kts 56°
2026-04-17 15:08 41.87009 -87.20459 37012 ft 506 kts 56°
2026-04-17 15:09 41.90695 -87.12421 37020 ft 506 kts 56°
2026-04-17 15:09 41.94377 -87.04368 37032 ft 506 kts 56°
2026-04-17 15:10 41.98053 -86.96305 37031 ft 506 kts 56°
2026-04-17 15:11 42.03548 -86.84212 37030 ft 504 kts 56°
2026-04-17 15:11 42.07193 -86.76164 37023 ft 504 kts 56°
2026-04-17 15:12 42.10834 -86.68104 37023 ft 504 kts 56°
2026-04-17 15:12 42.14470 -86.60033 37026 ft 504 kts 56°
2026-04-17 15:13 42.18098 -86.51958 37031 ft 502 kts 55°
2026-04-17 15:13 42.21702 -86.43912 37030 ft 500 kts 55°
2026-04-17 15:14 42.25294 -86.35872 37030 ft 500 kts 56°
2026-04-17 15:14 42.28880 -86.27825 37029 ft 500 kts 56°
2026-04-17 15:15 42.31859 -86.21124 37033 ft 500 kts 56°
2026-04-17 15:15 42.35434 -86.13062 37028 ft 499 kts 55°
2026-04-17 15:16 42.38984 -86.05032 37027 ft 497 kts 55°
2026-04-17 15:16 42.42521 -85.97012 37030 ft 496 kts 55°
2026-04-17 15:17 42.46057 -85.88975 37030 ft 497 kts 55°
2026-04-17 15:17 42.49584 -85.80934 37039 ft 497 kts 55°
2026-04-17 15:18 42.53108 -85.72878 37061 ft 497 kts 56°
2026-04-17 15:18 42.56628 -85.64809 37045 ft 497 kts 56°
2026-04-17 15:19 42.60141 -85.56734 37048 ft 497 kts 56°
2026-04-17 15:19 42.63652 -85.48641 37051 ft 497 kts 56°
2026-04-17 15:20 42.67155 -85.40544 37046 ft 497 kts 56°
2026-04-17 15:20 42.70619 -85.32515 37053 ft 495 kts 56°
2026-04-17 15:21 42.74091 -85.24444 37050 ft 494 kts 56°
2026-04-17 15:21 42.77560 -85.16362 37056 ft 495 kts 56°
2026-04-17 15:22 42.81024 -85.08268 37055 ft 494 kts 56°
2026-04-17 15:22 42.84479 -85.00173 37060 ft 493 kts 55°
2026-04-17 15:23 42.87911 -84.92105 37063 ft 492 kts 55°
2026-04-17 15:23 42.91340 -84.84028 37067 ft 492 kts 55°
2026-04-17 15:24 42.94757 -84.75954 37054 ft 491 kts 56°
2026-04-17 15:24 42.98167 -84.67875 37058 ft 491 kts 56°
2026-04-17 15:25 43.01567 -84.59793 37059 ft 489 kts 55°
2026-04-17 15:25 43.04951 -84.51729 37059 ft 489 kts 55°
2026-04-17 15:26 43.08329 -84.43662 37061 ft 489 kts 55°
2026-04-17 15:26 43.11700 -84.35586 37072 ft 489 kts 56°
2026-04-17 15:27 43.15068 -84.27495 37085 ft 489 kts 55°
2026-04-17 15:27 43.18422 -84.19413 37071 ft 487 kts 56°
2026-04-17 15:28 43.21764 -84.11337 37073 ft 487 kts 56°
2026-04-17 15:28 43.25104 -84.03247 37067 ft 487 kts 56°
2026-04-17 15:29 43.28437 -83.95150 37073 ft 487 kts 56°
2026-04-17 15:29 43.31758 -83.87056 37072 ft 486 kts 56°
2026-04-17 15:30 43.35069 -83.78965 37070 ft 485 kts 56°
2026-04-17 15:30 43.38368 -83.70885 37071 ft 485 kts 56°
2026-04-17 15:31 43.41662 -83.62793 37080 ft 485 kts 56°
2026-04-17 15:31 43.44952 -83.54686 37086 ft 485 kts 56°
2026-04-17 15:32 43.48207 -83.46641 37081 ft 484 kts 56°
2026-04-17 15:32 43.51475 -83.38541 37053 ft 483 kts 56°
2026-04-17 15:33 43.54735 -83.30439 37055 ft 483 kts 56°
2026-04-17 15:33 43.57992 -83.22325 37053 ft 484 kts 56°
2026-04-17 15:34 43.61240 -83.14206 37087 ft 483 kts 56°
2026-04-17 15:34 43.64476 -83.06094 37086 ft 481 kts 56°
2026-04-17 15:35 43.67699 -82.97993 37090 ft 481 kts 56°
2026-04-17 15:35 43.70916 -82.89885 37091 ft 481 kts 56°
2026-04-17 15:36 43.74128 -82.81767 37091 ft 481 kts 56°
2026-04-17 15:36 43.77333 -82.73642 37089 ft 481 kts 56°
2026-04-17 15:37 43.80525 -82.65525 37088 ft 480 kts 56°
2026-04-17 15:37 43.83711 -82.57402 37092 ft 480 kts 56°
2026-04-17 15:38 43.86890 -82.49274 37111 ft 480 kts 56°
2026-04-17 15:38 43.90065 -82.41132 37127 ft 480 kts 56°
2026-04-17 15:39 43.93231 -82.32990 37123 ft 479 kts 57°
2026-04-17 15:39 43.96385 -82.24852 37146 ft 478 kts 57°
2026-04-17 15:40 43.99528 -82.16708 37125 ft 479 kts 57°
2026-04-17 15:40 44.02584 -82.08467 37132 ft 480 kts 58°
2026-04-17 15:41 44.05606 -82.00194 37133 ft 480 kts 58°
2026-04-17 15:41 44.08635 -81.91918 37124 ft 480 kts 58°
2026-04-17 15:42 44.11668 -81.83643 37126 ft 480 kts 58°
2026-04-17 15:42 44.14677 -81.75420 37117 ft 480 kts 58°
2026-04-17 15:43 44.17723 -81.67069 37115 ft 480 kts 58°
2026-04-17 15:43 44.20741 -81.58767 37100 ft 480 kts 58°
2026-04-17 15:44 44.23748 -81.50470 37083 ft 479 kts 58°
2026-04-17 15:44 44.26727 -81.42225 37085 ft 479 kts 58°
2026-04-17 15:45 44.29722 -81.33913 37089 ft 479 kts 58°
2026-04-17 15:45 44.32714 -81.25585 37082 ft 480 kts 58°
2026-04-17 15:46 44.35699 -81.17246 37083 ft 480 kts 58°
2026-04-17 15:46 44.38676 -81.08908 37080 ft 480 kts 59°
2026-04-17 15:47 44.41648 -81.00556 37087 ft 480 kts 59°
2026-04-17 15:47 44.44614 -80.92198 37088 ft 480 kts 59°
2026-04-17 15:48 44.47574 -80.83830 37092 ft 480 kts 59°
2026-04-17 15:48 44.50529 -80.75449 37102 ft 480 kts 59°
2026-04-17 15:49 44.53477 -80.67064 37099 ft 480 kts 59°
2026-04-17 15:49 44.56418 -80.58673 37108 ft 480 kts 59°
2026-04-17 15:50 44.59355 -80.50267 37106 ft 480 kts 59°
2026-04-17 15:50 44.62286 -80.41851 37119 ft 481 kts 59°
2026-04-17 15:51 44.65217 -80.33410 37096 ft 481 kts 59°
2026-04-17 15:51 44.68141 -80.24962 37119 ft 481 kts 59°
2026-04-17 15:52 44.71059 -80.16503 37124 ft 481 kts 60°
2026-04-17 15:52 44.73972 -80.08034 37120 ft 481 kts 60°
2026-04-17 15:53 44.76878 -79.99556 37116 ft 482 kts 60°
2026-04-17 15:53 44.79787 -79.91046 37111 ft 483 kts 60°
2026-04-17 15:54 44.82691 -79.82520 37111 ft 483 kts 60°
2026-04-17 15:54 44.85590 -79.73983 37109 ft 483 kts 60°
2026-04-17 15:55 44.88483 -79.65437 37109 ft 483 kts 60°
2026-04-17 15:55 44.91369 -79.56883 37104 ft 483 kts 60°
2026-04-17 15:56 44.94236 -79.48362 37094 ft 484 kts 60°
2026-04-17 15:56 44.97139 -79.39703 37091 ft 485 kts 61°
2026-04-17 15:57 44.99996 -79.31153 37090 ft 485 kts 61°
2026-04-17 15:57 45.02866 -79.22535 37106 ft 485 kts 61°
2026-04-17 15:58 45.05729 -79.13910 37103 ft 484 kts 61°
2026-04-17 15:58 45.08587 -79.05276 37107 ft 485 kts 61°
2026-04-17 15:59 45.11445 -78.96612 37104 ft 486 kts 61°
2026-04-17 15:59 45.14301 -78.87925 37106 ft 487 kts 61°
2026-04-17 16:00 45.17149 -78.79230 37113 ft 487 kts 61°
2026-04-17 16:00 45.19989 -78.70535 37110 ft 485 kts 61°
2026-04-17 16:01 45.22339 -78.63315 37115 ft 486 kts 61°
2026-04-17 16:01 45.25170 -78.54595 37110 ft 487 kts 61°
2026-04-17 16:02 45.27996 -78.45857 37111 ft 487 kts 62°
2026-04-17 16:02 45.30818 -78.37104 37111 ft 487 kts 62°
2026-04-17 16:03 45.33632 -78.28346 37112 ft 487 kts 62°
2026-04-17 16:03 45.36433 -78.19597 37125 ft 486 kts 62°
2026-04-17 16:04 45.39233 -78.10830 37113 ft 487 kts 62°
2026-04-17 16:04 45.42028 -78.02044 37113 ft 487 kts 62°
2026-04-17 16:05 45.44817 -77.93246 37118 ft 488 kts 62°
2026-04-17 16:05 45.47600 -77.84436 37118 ft 487 kts 62°
2026-04-17 16:06 45.50374 -77.75626 37116 ft 488 kts 62°
2026-04-17 16:06 45.53146 -77.66791 37121 ft 488 kts 62°
2026-04-17 16:07 45.55915 -77.57937 37119 ft 489 kts 62°
2026-04-17 16:07 45.58696 -77.49159 37118 ft 487 kts 58°
2026-04-17 16:08 45.62097 -77.40848 37121 ft 484 kts 54°
2026-04-17 16:08 45.65639 -77.32672 37124 ft 483 kts 53°
2026-04-17 16:09 45.69195 -77.24524 37129 ft 483 kts 53°
2026-04-17 16:09 45.72741 -77.16354 37126 ft 484 kts 53°
2026-04-17 16:10 45.76277 -77.08159 37135 ft 484 kts 54°
2026-04-17 16:10 45.79806 -76.99948 37131 ft 484 kts 54°
2026-04-17 16:11 45.83330 -76.91726 37136 ft 484 kts 54°
2026-04-17 16:11 45.86848 -76.83494 37113 ft 484 kts 54°
2026-04-17 16:12 45.90364 -76.75241 37126 ft 484 kts 54°
2026-04-17 16:12 45.93873 -76.66983 37119 ft 484 kts 54°
2026-04-17 16:13 45.97375 -76.58712 37112 ft 484 kts 54°
2026-04-17 16:13 46.00873 -76.50430 37133 ft 485 kts 54°
2026-04-17 16:14 46.06084 -76.38044 37131 ft 484 kts 54°
2026-04-17 16:14 46.09567 -76.29736 37125 ft 484 kts 54°
2026-04-17 16:15 46.13042 -76.21422 37118 ft 484 kts 54°
2026-04-17 16:15 46.16514 -76.13090 37129 ft 485 kts 54°
2026-04-17 16:16 46.19984 -76.04741 37127 ft 485 kts 54°
2026-04-17 16:16 46.23447 -75.96379 37121 ft 485 kts 54°
2026-04-17 16:17 46.26904 -75.88005 37132 ft 485 kts 54°
2026-04-17 16:17 46.30354 -75.79623 37135 ft 485 kts 54°
2026-04-17 16:18 46.33801 -75.71226 37119 ft 486 kts 54°
2026-04-17 16:18 46.37245 -75.62810 37119 ft 486 kts 54°
2026-04-17 16:19 46.40681 -75.54388 37119 ft 486 kts 54°
2026-04-17 16:19 46.44114 -75.45946 37118 ft 486 kts 54°
2026-04-17 16:20 46.47539 -75.37498 37116 ft 486 kts 55°
2026-04-17 16:20 46.50962 -75.29032 37116 ft 487 kts 55°
2026-04-17 16:21 46.54356 -75.20607 37108 ft 486 kts 55°
2026-04-17 16:21 46.57787 -75.12066 37113 ft 486 kts 55°
2026-04-17 16:22 46.61169 -75.03620 37119 ft 486 kts 55°
2026-04-17 16:22 46.64568 -74.95106 37107 ft 487 kts 55°
2026-04-17 16:23 46.67965 -74.86570 37106 ft 487 kts 55°
2026-04-17 16:23 46.71356 -74.78023 37103 ft 487 kts 55°
2026-04-17 16:24 46.74736 -74.69476 37100 ft 487 kts 55°
2026-04-17 16:24 46.78114 -74.60911 37104 ft 487 kts 55°
2026-04-17 16:25 46.81491 -74.52318 37098 ft 488 kts 55°
2026-04-17 16:25 46.84863 -74.43709 37095 ft 488 kts 55°
2026-04-17 16:26 46.88228 -74.35094 37097 ft 488 kts 56°
2026-04-17 16:26 46.91590 -74.26457 37098 ft 488 kts 56°
2026-04-17 16:27 46.94945 -74.17812 37104 ft 489 kts 56°
2026-04-17 16:27 46.98296 -74.09151 37096 ft 489 kts 56°
2026-04-17 16:28 47.01639 -74.00478 37096 ft 489 kts 56°
2026-04-17 16:28 47.04956 -73.91848 37091 ft 489 kts 56°
2026-04-17 16:29 47.08289 -73.83149 37113 ft 489 kts 56°
2026-04-17 16:29 47.11618 -73.74432 37095 ft 490 kts 56°
2026-04-17 16:30 47.14948 -73.65683 37098 ft 491 kts 56°
2026-04-17 16:30 47.18274 -73.56915 37103 ft 491 kts 56°
2026-04-17 16:31 47.21593 -73.48140 37097 ft 491 kts 56°
2026-04-17 16:31 47.24908 -73.39342 37104 ft 492 kts 56°
2026-04-17 16:32 47.28223 -73.30519 37100 ft 492 kts 56°
2026-04-17 16:32 47.31532 -73.21684 37099 ft 492 kts 56°
2026-04-17 16:33 47.34829 -73.12848 37102 ft 492 kts 56°
2026-04-17 16:33 47.38115 -73.04015 37102 ft 491 kts 56°
2026-04-17 16:34 47.41397 -72.95163 37100 ft 492 kts 56°
2026-04-17 16:34 47.44676 -72.86291 37099 ft 492 kts 57°
2026-04-17 16:35 47.47946 -72.77410 37100 ft 492 kts 57°
2026-04-17 16:35 47.51212 -72.68510 37093 ft 492 kts 57°
2026-04-17 16:36 47.54471 -72.59604 37094 ft 492 kts 57°
2026-04-17 16:36 47.57721 -72.50690 37086 ft 492 kts 57°
2026-04-17 16:37 47.60944 -72.41819 37089 ft 492 kts 57°
2026-04-17 16:37 47.64184 -72.32875 37089 ft 492 kts 57°
2026-04-17 16:38 47.67414 -72.23925 37078 ft 492 kts 57°
2026-04-17 16:38 47.70641 -72.14955 37081 ft 493 kts 57°
2026-04-17 16:39 47.73874 -72.05940 37076 ft 495 kts 57°
2026-04-17 16:39 47.77100 -71.96908 37072 ft 495 kts 57°
2026-04-17 16:40 47.80321 -71.87858 37069 ft 495 kts 57°
2026-04-17 16:40 47.83535 -71.78800 37059 ft 495 kts 57°
2026-04-17 16:41 47.86745 -71.69719 37061 ft 497 kts 57°
2026-04-17 16:41 47.89960 -71.60595 37065 ft 498 kts 57°
2026-04-17 16:42 47.93169 -71.51459 37056 ft 498 kts 57°
2026-04-17 16:42 47.96373 -71.42300 37053 ft 498 kts 58°
2026-04-17 16:43 47.99570 -71.33132 37086 ft 498 kts 57°
2026-04-17 16:43 48.02974 -71.24139 37046 ft 496 kts 52°
2026-04-17 16:44 48.06685 -71.15450 37081 ft 496 kts 51°
2026-04-17 16:44 48.10439 -71.06795 37092 ft 496 kts 51°
2026-04-17 16:45 48.14189 -70.98132 37102 ft 496 kts 52°
2026-04-17 16:45 48.17931 -70.89442 37105 ft 497 kts 51°
2026-04-17 16:46 48.21669 -70.80722 37104 ft 498 kts 52°
2026-04-17 16:46 48.25407 -70.71971 37105 ft 498 kts 52°
2026-04-17 16:47 48.29140 -70.63200 37101 ft 498 kts 52°
2026-04-17 16:47 48.32868 -70.54417 37096 ft 499 kts 52°
2026-04-17 16:48 48.36577 -70.45654 37075 ft 501 kts 52°
2026-04-17 16:48 48.40310 -70.36800 37061 ft 501 kts 52°
2026-04-17 16:49 48.44033 -70.27936 37045 ft 501 kts 52°
2026-04-17 16:49 48.47754 -70.19053 37069 ft 501 kts 52°
2026-04-17 16:50 48.50875 -70.11583 37037 ft 504 kts 52°
2026-04-17 16:50 48.54605 -70.02627 37037 ft 504 kts 52°
2026-04-17 16:51 48.58329 -69.93648 37031 ft 504 kts 52°
2026-04-17 16:51 48.62020 -69.84723 37025 ft 504 kts 52°
2026-04-17 16:52 48.65735 -69.75710 37025 ft 506 kts 52°
2026-04-17 16:52 48.69451 -69.66665 37024 ft 506 kts 52°
2026-04-17 16:53 48.73159 -69.57607 37028 ft 507 kts 52°
2026-04-17 16:53 48.76865 -69.48521 37024 ft 507 kts 52°
2026-04-17 16:54 48.80568 -69.39415 37023 ft 508 kts 52°
2026-04-17 16:54 48.84272 -69.30279 37020 ft 509 kts 52°
2026-04-17 16:55 48.87968 -69.21126 37018 ft 509 kts 52°
2026-04-17 16:55 48.91661 -69.11950 37019 ft 509 kts 52°
2026-04-17 16:56 48.95346 -69.02763 37048 ft 509 kts 52°
2026-04-17 16:56 48.99038 -68.93529 37017 ft 512 kts 52°
2026-04-17 16:57 49.02730 -68.84258 37004 ft 512 kts 53°
2026-04-17 16:57 49.06413 -68.74978 37014 ft 512 kts 53°
2026-04-17 16:58 49.10066 -68.65741 37010 ft 512 kts 53°
2026-04-17 16:58 49.13760 -68.56369 37008 ft 512 kts 53°
2026-04-17 16:59 49.17399 -68.47105 37009 ft 512 kts 53°
2026-04-17 16:59 49.21054 -68.37766 37007 ft 512 kts 53°
2026-04-17 17:00 49.24703 -68.28406 37005 ft 512 kts 53°
2026-04-17 17:00 49.28348 -68.19027 37006 ft 514 kts 53°
2026-04-17 17:01 49.32003 -68.09593 37006 ft 515 kts 53°
2026-04-17 17:01 49.35655 -68.00129 36995 ft 516 kts 53°
2026-04-17 17:02 49.39299 -67.90646 36995 ft 516 kts 53°
2026-04-17 17:02 49.42936 -67.81151 37014 ft 516 kts 53°
2026-04-17 17:03 49.46578 -67.71613 36997 ft 518 kts 53°
2026-04-17 17:03 49.50217 -67.62039 36985 ft 519 kts 53°
2026-04-17 17:04 49.53849 -67.52450 36988 ft 518 kts 53°
2026-04-17 17:04 49.57474 -67.42844 37009 ft 519 kts 53°
2026-04-17 17:05 49.61095 -67.33217 36970 ft 520 kts 54°
2026-04-17 17:05 49.64712 -67.23568 36957 ft 520 kts 54°
2026-04-17 17:06 49.68320 -67.13906 36960 ft 520 kts 54°
2026-04-17 17:06 49.71923 -67.04218 36953 ft 520 kts 54°
2026-04-17 17:07 49.75515 -66.94524 36955 ft 519 kts 53°
2026-04-17 17:07 49.79089 -66.84842 36930 ft 518 kts 53°
2026-04-17 17:08 49.82656 -66.75144 36939 ft 518 kts 53°
2026-04-17 17:08 49.86218 -66.65425 36937 ft 519 kts 54°
2026-04-17 17:09 49.89754 -66.55742 36936 ft 519 kts 54°
2026-04-17 17:09 49.93294 -66.46004 36926 ft 518 kts 54°
2026-04-17 17:10 49.96827 -66.36251 36916 ft 518 kts 54°
2026-04-17 17:10 50.00350 -66.26493 36919 ft 518 kts 54°
2026-04-17 17:11 50.03864 -66.16719 36971 ft 518 kts 54°
2026-04-17 17:11 50.07369 -66.06937 36916 ft 517 kts 54°
2026-04-17 17:12 50.10858 -65.97158 36933 ft 516 kts 54°
2026-04-17 17:12 50.14338 -65.87369 36921 ft 517 kts 54°
2026-04-17 17:13 50.17812 -65.77559 36916 ft 517 kts 54°
2026-04-17 17:13 50.21277 -65.67737 36908 ft 516 kts 54°
2026-04-17 17:14 50.24730 -65.57911 36908 ft 516 kts 54°
2026-04-17 17:15 50.29897 -65.43139 36911 ft 516 kts 54°
2026-04-17 17:15 50.33329 -65.33277 36908 ft 516 kts 54°
2026-04-17 17:16 50.36753 -65.23399 36915 ft 516 kts 55°
2026-04-17 17:16 50.40179 -65.13482 36908 ft 518 kts 55°
2026-04-17 17:17 50.43599 -65.03542 36901 ft 518 kts 55°
2026-04-17 17:17 50.47009 -64.93589 36901 ft 518 kts 55°
2026-04-17 17:18 50.50413 -64.83613 36907 ft 518 kts 55°
2026-04-17 17:18 50.53807 -64.73628 36892 ft 518 kts 55°
2026-04-17 17:19 50.57191 -64.63636 36884 ft 518 kts 55°
2026-04-17 17:19 50.60569 -64.53622 36877 ft 518 kts 56°
2026-04-17 17:20 50.63940 -64.43592 36888 ft 520 kts 56°
2026-04-17 17:20 50.67295 -64.33568 36885 ft 521 kts 56°
2026-04-17 17:21 50.70662 -64.23459 36880 ft 521 kts 56°
2026-04-17 17:21 50.74022 -64.13335 36886 ft 521 kts 56°
2026-04-17 17:22 50.77373 -64.03196 36881 ft 521 kts 57°
2026-04-17 17:22 50.80719 -63.93033 36885 ft 520 kts 56°
2026-04-17 17:23 50.84050 -63.82875 36877 ft 520 kts 56°
2026-04-17 17:23 50.87373 -63.72702 36853 ft 520 kts 57°
2026-04-17 17:24 50.90695 -63.62486 36888 ft 523 kts 57°
2026-04-17 17:24 50.94019 -63.52225 36935 ft 524 kts 57°
2026-04-17 17:25 50.97335 -63.41941 36886 ft 524 kts 57°
2026-04-17 17:25 51.00644 -63.31641 36890 ft 524 kts 57°
2026-04-17 17:26 51.03945 -63.21323 36896 ft 524 kts 57°
2026-04-17 17:26 51.07235 -63.10993 36892 ft 524 kts 57°
2026-04-17 17:27 51.10519 -63.00641 36892 ft 524 kts 57°
2026-04-17 17:27 51.13799 -62.90260 36886 ft 525 kts 58°
2026-04-17 17:28 51.17079 -62.79834 36892 ft 527 kts 58°
2026-04-17 17:28 51.20354 -62.69379 36895 ft 527 kts 58°
2026-04-17 17:29 51.23618 -62.58908 36919 ft 528 kts 58°
2026-04-17 17:29 51.26878 -62.48408 36906 ft 528 kts 58°
2026-04-17 17:30 51.30131 -62.37890 36896 ft 528 kts 58°
2026-04-17 17:30 51.33375 -62.27356 36908 ft 528 kts 58°
2026-04-17 17:31 51.36611 -62.16798 36908 ft 528 kts 58°
2026-04-17 17:31 51.39842 -62.06213 36892 ft 530 kts 59°
2026-04-17 17:32 51.43076 -61.95573 36897 ft 531 kts 59°
2026-04-17 17:32 51.46299 -61.84916 36905 ft 532 kts 59°
2026-04-17 17:33 51.49514 -61.74240 36894 ft 531 kts 59°
2026-04-17 17:33 51.52700 -61.63613 36909 ft 532 kts 59°
2026-04-17 17:34 51.55897 -61.52907 36910 ft 532 kts 59°
2026-04-17 17:34 51.59109 -61.42103 36897 ft 532 kts 59°
2026-04-17 17:35 51.61752 -61.33174 36889 ft 532 kts 59°
2026-04-17 17:35 51.64926 -61.22403 36901 ft 534 kts 60°
2026-04-17 17:36 51.68099 -61.11590 36900 ft 534 kts 60°
2026-04-17 17:36 51.71263 -61.00763 36908 ft 534 kts 60°
2026-04-17 17:37 51.74417 -60.89917 36910 ft 534 kts 60°
2026-04-17 17:37 51.77561 -60.79055 36906 ft 534 kts 60°
2026-04-17 17:38 51.80696 -60.68178 36903 ft 534 kts 60°
2026-04-17 17:38 51.83818 -60.57291 36911 ft 534 kts 60°
2026-04-17 17:39 51.86931 -60.46386 36895 ft 534 kts 61°
2026-04-17 17:39 51.90042 -60.35441 36896 ft 536 kts 61°
2026-04-17 17:40 51.93151 -60.24453 36954 ft 536 kts 61°
2026-04-17 17:40 51.96226 -60.13527 36879 ft 536 kts 61°
2026-04-17 17:41 51.99319 -60.02516 36881 ft 536 kts 60°
2026-04-17 17:41 52.02936 -59.91928 36884 ft 532 kts 55°
2026-04-17 17:42 52.06655 -59.81625 36889 ft 532 kts 54°
2026-04-17 17:42 52.10413 -59.71271 36875 ft 532 kts 54°
2026-04-17 17:43 52.14162 -59.60880 36885 ft 532 kts 54°
2026-04-17 17:43 52.17897 -59.50460 36886 ft 534 kts 55°
2026-04-17 17:44 52.21632 -59.39984 36892 ft 535 kts 55°
2026-04-17 17:44 52.25361 -59.29479 36888 ft 535 kts 55°
2026-04-17 17:45 52.29077 -59.18970 36883 ft 535 kts 55°
2026-04-17 17:45 52.32784 -59.08442 36886 ft 535 kts 55°
2026-04-17 17:46 52.36483 -58.97894 36886 ft 535 kts 55°
2026-04-17 17:46 52.40174 -58.87326 36895 ft 534 kts 56°
2026-04-17 17:47 52.43843 -58.76771 36892 ft 533 kts 56°
2026-04-17 17:47 52.47501 -58.66208 36894 ft 533 kts 56°
2026-04-17 17:48 52.51150 -58.55627 36877 ft 533 kts 56°
2026-04-17 17:48 52.54794 -58.45016 36910 ft 535 kts 56°
2026-04-17 17:49 52.58435 -58.34365 36897 ft 534 kts 56°
2026-04-17 17:49 52.62060 -58.23715 36902 ft 534 kts 56°
2026-04-17 17:50 52.65680 -58.13035 36903 ft 534 kts 56°
2026-04-17 17:50 52.69289 -58.02341 36936 ft 534 kts 57°
2026-04-17 17:51 52.72884 -57.91641 36908 ft 533 kts 57°
2026-04-17 17:51 52.76465 -57.80937 36912 ft 533 kts 57°
2026-04-17 17:52 52.80036 -57.70221 36903 ft 533 kts 57°
2026-04-17 17:52 52.83597 -57.59485 36902 ft 533 kts 57°
2026-04-17 17:53 52.87146 -57.48736 36905 ft 531 kts 57°
2026-04-17 17:53 52.90677 -57.37998 36903 ft 531 kts 57°
2026-04-17 17:54 52.94197 -57.27245 36899 ft 531 kts 57°
2026-04-17 17:54 52.97709 -57.16474 36903 ft 531 kts 57°
2026-04-17 17:55 53.01210 -57.05683 36896 ft 530 kts 58°
2026-04-17 17:55 53.04669 -56.94973 36898 ft 529 kts 58°
2026-04-17 17:56 53.08142 -56.84178 36894 ft 530 kts 58°
2026-04-17 17:56 53.11611 -56.73360 36894 ft 530 kts 58°
2026-04-17 17:57 53.15080 -56.62550 36904 ft 529 kts 58°
2026-04-17 17:57 53.18541 -56.51730 36900 ft 529 kts 58°
2026-04-17 17:58 53.21990 -56.40893 36893 ft 529 kts 58°
2026-04-17 17:58 53.25432 -56.30027 36903 ft 530 kts 58°
2026-04-17 17:59 53.28868 -56.19128 36922 ft 530 kts 59°
2026-04-17 17:59 53.32285 -56.08234 36906 ft 529 kts 59°
2026-04-17 18:00 53.35693 -55.97326 36899 ft 529 kts 59°
2026-04-17 18:00 53.39093 -55.86395 36904 ft 529 kts 59°
2026-04-17 18:01 53.42482 -55.75449 36901 ft 529 kts 59°
2026-04-17 18:01 53.45858 -55.64494 36900 ft 528 kts 59°
2026-04-17 18:02 53.49220 -55.53537 36890 ft 528 kts 59°
2026-04-17 18:02 53.52571 -55.42563 36887 ft 528 kts 59°
2026-04-17 18:03 53.55914 -55.31568 36867 ft 528 kts 59°
2026-04-17 18:03 53.59254 -55.20533 36894 ft 530 kts 60°
2026-04-17 18:04 53.62588 -55.09463 36883 ft 530 kts 60°
2026-04-17 18:04 53.65891 -54.98445 36883 ft 530 kts 60°
2026-04-17 18:05 53.69205 -54.87337 36879 ft 530 kts 60°
2026-04-17 18:05 53.72510 -54.76210 36887 ft 530 kts 60°
2026-04-17 18:06 53.75803 -54.65072 36865 ft 530 kts 60°
2026-04-17 18:06 53.79083 -54.53925 36867 ft 529 kts 60°
2026-04-17 18:07 53.82351 -54.42765 36866 ft 530 kts 60°
2026-04-17 18:07 53.85612 -54.31576 36906 ft 530 kts 61°
2026-04-17 18:08 53.88859 -54.20384 36818 ft 529 kts 61°
2026-04-17 18:08 53.92093 -54.09181 36854 ft 529 kts 61°
2026-04-17 18:09 53.95324 -53.97940 36852 ft 530 kts 61°
2026-04-17 18:09 53.98543 -53.86680 36854 ft 530 kts 61°
2026-04-17 18:10 54.01750 -53.75413 36852 ft 529 kts 62°
2026-04-17 18:10 54.04944 -53.64134 36838 ft 529 kts 62°
2026-04-17 18:11 54.08105 -53.52916 36840 ft 529 kts 62°
2026-04-17 18:11 54.11278 -53.41603 36841 ft 529 kts 62°
2026-04-17 18:12 54.14440 -53.30276 36852 ft 529 kts 62°
2026-04-17 18:12 54.17587 -53.18943 36830 ft 528 kts 62°
2026-04-17 18:13 54.20723 -53.07599 36828 ft 528 kts 62°
2026-04-17 18:13 54.23852 -52.96223 36835 ft 530 kts 63°
2026-04-17 18:14 54.26974 -52.84815 36832 ft 530 kts 63°
2026-04-17 18:14 54.30088 -52.73380 36825 ft 530 kts 63°
2026-04-17 18:15 54.33188 -52.61937 36827 ft 529 kts 63°
2026-04-17 18:15 54.36278 -52.50476 36825 ft 529 kts 63°
2026-04-17 18:16 54.39355 -52.39006 36830 ft 529 kts 63°
2026-04-17 18:16 54.42421 -52.27517 36818 ft 529 kts 63°
2026-04-17 18:17 54.45475 -52.16018 36824 ft 529 kts 64°
2026-04-17 18:17 54.50012 -51.98821 36828 ft 529 kts 64°
2026-04-17 18:18 54.53036 -51.87289 36833 ft 529 kts 64°
2026-04-17 18:18 54.56052 -51.75729 36815 ft 529 kts 64°
2026-04-17 18:19 54.59059 -51.64143 36827 ft 530 kts 64°
2026-04-17 18:19 54.62054 -51.52542 36818 ft 530 kts 64°
2026-04-17 18:20 54.65040 -51.40916 36823 ft 530 kts 64°
2026-04-17 18:20 54.68014 -51.29278 36823 ft 530 kts 65°
2026-04-17 18:21 54.70977 -51.17621 36823 ft 529 kts 65°
2026-04-17 18:21 54.73928 -51.05951 36823 ft 529 kts 65°
2026-04-17 18:22 54.76866 -50.94270 36825 ft 529 kts 65°
2026-04-17 18:22 54.79794 -50.82567 36815 ft 529 kts 65°
2026-04-17 18:23 54.82219 -50.72830 36823 ft 529 kts 65°
2026-04-17 18:23 54.85125 -50.61099 36785 ft 529 kts 66°
2026-04-17 18:24 54.88026 -50.49329 36820 ft 531 kts 66°
2026-04-17 18:24 54.90921 -50.37521 36816 ft 531 kts 66°
2026-04-17 18:25 54.93806 -50.25692 36814 ft 531 kts 66°
2026-04-17 18:25 54.96658 -50.13930 36824 ft 531 kts 66°
2026-04-17 18:26 54.99381 -50.01890 36822 ft 532 kts 75°
2026-04-17 18:26 55.00487 -49.89205 36820 ft 530 kts 86°
2026-04-17 18:27 55.01031 -49.76485 36819 ft 530 kts 88°
2026-04-17 18:27 55.01480 -49.63663 36841 ft 530 kts 88°
2026-04-17 18:28 55.01935 -49.50830 36814 ft 531 kts 88°
2026-04-17 18:28 55.02398 -49.37971 36813 ft 532 kts 88°
2026-04-17 18:29 55.02855 -49.25114 36813 ft 532 kts 88°
2026-04-17 18:29 55.03299 -49.12251 36811 ft 532 kts 88°
2026-04-17 18:30 55.03729 -48.99384 36813 ft 532 kts 89°
2026-04-17 18:30 55.04144 -48.86519 36844 ft 532 kts 89°
2026-04-17 18:31 55.04545 -48.73640 36810 ft 532 kts 89°
2026-04-17 18:31 55.04934 -48.60747 36809 ft 533 kts 89°
2026-04-17 18:32 55.05309 -48.47848 36810 ft 533 kts 89°
2026-04-17 18:32 55.05670 -48.34951 36811 ft 532 kts 89°
2026-04-17 18:33 55.06018 -48.22049 36814 ft 532 kts 89°
2026-04-17 18:33 55.06352 -48.09149 36832 ft 532 kts 90°
2026-04-17 18:34 55.06672 -47.96238 36815 ft 533 kts 90°
2026-04-17 18:34 55.06979 -47.83309 36812 ft 533 kts 90°
2026-04-17 18:35 55.07273 -47.70382 36813 ft 533 kts 90°
2026-04-17 18:35 55.07553 -47.57446 36814 ft 533 kts 90°
2026-04-17 18:36 55.07817 -47.44600 36820 ft 533 kts 90°
2026-04-17 18:36 55.08069 -47.31666 36833 ft 533 kts 90°
2026-04-17 18:37 55.08308 -47.18729 36816 ft 533 kts 91°
2026-04-17 18:37 55.08534 -47.05708 36817 ft 533 kts 91°
2026-04-17 18:38 55.08744 -46.92859 36813 ft 533 kts 91°
2026-04-17 18:38 55.08942 -46.79920 36821 ft 533 kts 91°
2026-04-17 18:39 55.09126 -46.66987 36820 ft 533 kts 91°
2026-04-17 18:39 55.09296 -46.54046 36846 ft 533 kts 91°
2026-04-17 18:40 55.09452 -46.41104 36827 ft 534 kts 91°
2026-04-17 18:40 55.09595 -46.28153 36821 ft 534 kts 92°
2026-04-17 18:41 55.09724 -46.15199 36822 ft 534 kts 92°
2026-04-17 18:41 55.09839 -46.02240 36828 ft 534 kts 92°
2026-04-17 18:42 55.09941 -45.89280 36827 ft 534 kts 92°
2026-04-17 18:42 55.10029 -45.76328 36839 ft 534 kts 92°
2026-04-17 18:43 55.10103 -45.63366 36828 ft 534 kts 92°
2026-04-17 18:43 55.10163 -45.50400 36831 ft 534 kts 92°
2026-04-17 18:44 55.10210 -45.37436 36828 ft 534 kts 92°
2026-04-17 18:44 55.10243 -45.24470 36831 ft 534 kts 93°
2026-04-17 18:45 55.10262 -45.11510 36834 ft 534 kts 93°
2026-04-17 18:45 55.10267 -44.98538 36801 ft 534 kts 93°
2026-04-17 18:46 55.10259 -44.85581 36834 ft 534 kts 93°
2026-04-17 18:46 55.10236 -44.72616 36834 ft 534 kts 93°
2026-04-17 18:47 55.10200 -44.59657 36838 ft 534 kts 93°
2026-04-17 18:47 55.10151 -44.46700 36837 ft 534 kts 94°
2026-04-17 18:48 55.10087 -44.33746 36845 ft 534 kts 94°
2026-04-17 18:48 55.10010 -44.20791 36810 ft 533 kts 94°
2026-04-17 18:49 55.09920 -44.07933 36844 ft 533 kts 94°
2026-04-17 18:49 55.09815 -43.95007 36848 ft 532 kts 94°
2026-04-17 18:50 55.09697 -43.82081 36848 ft 532 kts 94°
2026-04-17 18:50 55.09565 -43.69157 36855 ft 533 kts 94°
2026-04-17 18:51 55.09420 -43.56231 36852 ft 532 kts 94°
2026-04-17 18:51 55.09261 -43.43314 36813 ft 532 kts 94°
2026-04-17 18:52 55.09088 -43.30400 36868 ft 532 kts 94°
2026-04-17 18:52 55.08902 -43.17494 36854 ft 532 kts 95°
2026-04-17 18:53 55.08703 -43.04594 36860 ft 532 kts 95°
2026-04-17 18:53 55.08489 -42.91702 36858 ft 531 kts 95°
2026-04-17 18:54 55.08262 -42.78802 36866 ft 531 kts 95°
2026-04-17 18:54 55.08022 -42.65915 36836 ft 531 kts 95°
2026-04-17 18:55 55.07767 -42.53025 36877 ft 531 kts 95°
2026-04-17 18:55 55.07500 -42.40145 36878 ft 531 kts 95°
2026-04-17 18:56 55.07219 -42.27268 36878 ft 531 kts 95°
2026-04-17 18:56 55.06926 -42.14484 36885 ft 531 kts 95°
2026-04-17 18:57 55.06618 -42.01618 36883 ft 531 kts 96°
2026-04-17 18:57 55.06296 -41.88745 36854 ft 531 kts 96°
2026-04-17 18:58 55.05961 -41.75881 36892 ft 531 kts 96°
2026-04-17 18:58 55.05612 -41.63020 36892 ft 531 kts 96°
2026-04-17 18:59 55.05250 -41.50168 36903 ft 531 kts 96°
2026-04-17 18:59 55.04874 -41.37312 36903 ft 531 kts 96°
2026-04-17 19:00 55.04485 -41.24460 36914 ft 531 kts 96°
2026-04-17 19:00 55.04082 -41.11609 36870 ft 531 kts 96°
2026-04-17 19:01 55.03666 -40.98768 36911 ft 530 kts 96°
2026-04-17 19:01 55.03236 -40.85938 36917 ft 530 kts 96°
2026-04-17 19:02 55.02793 -40.73106 36918 ft 530 kts 97°
2026-04-17 19:02 55.02337 -40.60285 36932 ft 530 kts 97°
2026-04-17 19:03 55.01868 -40.47501 36929 ft 530 kts 97°
2026-04-17 19:03 55.01384 -40.34660 36934 ft 530 kts 97°
2026-04-17 19:04 55.00887 -40.21851 36933 ft 530 kts 97°
2026-04-17 19:04 55.00377 -40.09037 36936 ft 530 kts 97°
2026-04-17 19:05 55.00209 -39.96278 36940 ft 532 kts 89°
2026-04-17 19:05 55.00639 -39.83397 36938 ft 533 kts 88°
2026-04-17 19:06 55.01160 -39.70509 36938 ft 533 kts 88°
2026-04-17 19:06 55.01672 -39.57621 36948 ft 533 kts 88°
2026-04-17 19:07 55.02158 -39.44725 36945 ft 533 kts 88°
2026-04-17 19:07 55.02622 -39.31822 36948 ft 533 kts 88°
2026-04-17 19:08 55.03072 -39.18922 36957 ft 533 kts 89°
2026-04-17 19:08 55.03509 -39.06017 36950 ft 533 kts 89°
2026-04-17 19:09 55.03932 -38.93099 36967 ft 533 kts 89°
2026-04-17 19:09 55.04342 -38.80193 36955 ft 533 kts 89°
2026-04-17 19:10 55.04738 -38.67277 36964 ft 533 kts 89°
2026-04-17 19:10 55.05057 -38.56536 36974 ft 533 kts 89°
2026-04-17 19:11 55.05428 -38.43622 36973 ft 534 kts 89°
2026-04-17 19:11 55.05786 -38.30686 36991 ft 534 kts 89°
2026-04-17 19:12 55.06129 -38.17761 36975 ft 534 kts 89°
2026-04-17 19:12 55.06460 -38.04811 36982 ft 534 kts 89°
2026-04-17 19:13 55.06777 -37.91859 36988 ft 534 kts 89°
2026-04-17 19:13 55.07080 -37.78914 36990 ft 534 kts 89°
2026-04-17 19:14 55.07369 -37.65960 37003 ft 534 kts 89°
2026-04-17 19:14 55.07644 -37.53008 36981 ft 534 kts 89°
2026-04-17 19:15 55.07906 -37.40045 36994 ft 534 kts 89°
2026-04-17 19:15 55.08154 -37.27103 37005 ft 534 kts 90°
2026-04-17 19:16 55.08389 -37.14135 37005 ft 534 kts 90°
2026-04-17 19:16 55.08609 -37.01181 37010 ft 534 kts 90°
2026-04-17 19:17 55.08816 -36.88212 37009 ft 534 kts 90°
2026-04-17 19:17 55.09009 -36.75250 37012 ft 534 kts 90°
2026-04-17 19:18 55.09187 -36.62382 36982 ft 534 kts 90°
2026-04-17 19:18 55.09353 -36.49414 37018 ft 534 kts 90°
2026-04-17 19:19 55.09504 -36.36460 37018 ft 534 kts 90°
2026-04-17 19:19 55.09642 -36.23498 37029 ft 534 kts 90°
2026-04-17 19:20 55.09766 -36.10544 37029 ft 534 kts 90°
2026-04-17 19:20 55.09877 -35.97590 37029 ft 534 kts 90°
2026-04-17 19:21 55.09974 -35.84627 37031 ft 534 kts 90°
2026-04-17 19:21 55.10057 -35.71672 37031 ft 534 kts 90°
2026-04-17 19:22 55.10125 -35.58711 37030 ft 534 kts 90°
2026-04-17 19:22 55.10181 -35.45756 37041 ft 534 kts 90°
2026-04-17 19:23 55.10238 -35.26320 37038 ft 534 kts 91°
2026-04-17 19:24 55.10259 -35.13366 37039 ft 533 kts 91°
2026-04-17 19:24 55.10267 -35.00399 37049 ft 534 kts 91°
2026-04-17 19:25 55.10260 -34.87450 37044 ft 533 kts 91°
2026-04-17 19:25 55.10240 -34.74508 37042 ft 533 kts 91°
2026-04-17 19:26 55.10206 -34.61559 37049 ft 533 kts 91°
2026-04-17 19:26 55.10158 -34.48637 37045 ft 533 kts 91°
2026-04-17 19:27 55.10097 -34.35691 37051 ft 533 kts 91°
2026-04-17 19:27 55.10022 -34.22858 37053 ft 532 kts 91°
2026-04-17 19:28 55.09934 -34.09945 37050 ft 531 kts 91°
2026-04-17 19:28 55.09832 -33.97046 37050 ft 531 kts 91°
2026-04-17 19:29 55.09717 -33.84150 37055 ft 531 kts 91°
2026-04-17 19:29 55.09587 -33.71255 37050 ft 531 kts 91°
2026-04-17 19:30 55.09444 -33.58365 37056 ft 530 kts 91°
2026-04-17 19:30 55.09288 -33.45536 37055 ft 529 kts 91°
2026-04-17 19:31 55.09120 -33.32705 37068 ft 529 kts 91°
2026-04-17 19:31 55.08937 -33.19874 37064 ft 528 kts 91°
2026-04-17 19:32 55.08741 -33.07047 37062 ft 528 kts 91°
2026-04-17 19:32 55.08531 -32.94227 37071 ft 528 kts 91°
2026-04-17 19:33 55.08309 -32.81440 37056 ft 526 kts 91°
2026-04-17 19:33 55.08074 -32.68692 37068 ft 525 kts 91°
2026-04-17 19:34 55.07826 -32.55966 37066 ft 525 kts 91°
2026-04-17 19:34 55.07565 -32.43236 37074 ft 525 kts 92°
2026-04-17 19:35 55.07292 -32.30587 37086 ft 525 kts 92°
2026-04-17 19:35 55.07005 -32.17888 37072 ft 523 kts 92°
2026-04-17 19:36 55.06705 -32.05235 37072 ft 522 kts 92°
2026-04-17 19:36 55.06393 -31.92588 37074 ft 522 kts 92°
2026-04-17 19:37 55.06067 -31.79933 37069 ft 522 kts 92°
2026-04-17 19:37 55.05729 -31.67308 37069 ft 521 kts 92°
2026-04-17 19:38 55.05378 -31.54700 37074 ft 519 kts 92°
2026-04-17 19:38 55.05016 -31.42151 37073 ft 518 kts 92°
2026-04-17 19:39 55.04641 -31.29603 37076 ft 518 kts 92°
2026-04-17 19:39 55.04253 -31.17058 37078 ft 518 kts 92°
2026-04-17 19:40 55.03852 -31.04509 37079 ft 518 kts 92°
2026-04-17 19:40 55.03439 -30.91978 37073 ft 517 kts 93°
2026-04-17 19:41 55.03014 -30.79482 37082 ft 515 kts 93°
2026-04-17 19:41 55.02578 -30.67036 37078 ft 515 kts 93°
2026-04-17 19:42 55.02128 -30.54580 37078 ft 515 kts 93°
2026-04-17 19:42 55.01667 -30.42136 37078 ft 515 kts 93°
2026-04-17 19:43 55.01192 -30.29689 37090 ft 515 kts 93°
2026-04-17 19:43 55.00706 -30.17277 37077 ft 513 kts 94°
2026-04-17 19:44 55.00208 -30.04869 37077 ft 513 kts 94°
2026-04-17 19:44 55.00313 -29.92472 37077 ft 512 kts 85°
2026-04-17 19:45 55.00769 -29.80175 37079 ft 512 kts 84°
2026-04-17 19:45 55.01272 -29.67809 37091 ft 512 kts 85°
2026-04-17 19:46 55.01756 -29.55447 37081 ft 511 kts 85°
2026-04-17 19:46 55.02217 -29.43084 37077 ft 511 kts 85°
2026-04-17 19:47 55.02660 -29.30724 37078 ft 511 kts 85°
2026-04-17 19:47 55.03090 -29.18368 37076 ft 511 kts 85°
2026-04-17 19:48 55.03508 -29.05998 37077 ft 511 kts 85°
2026-04-17 19:48 55.03914 -28.93625 37074 ft 511 kts 85°
2026-04-17 19:49 55.04307 -28.81261 37072 ft 511 kts 86°
2026-04-17 19:49 55.04688 -28.68887 37072 ft 511 kts 86°
2026-04-17 19:50 55.05057 -28.56511 37080 ft 511 kts 86°
2026-04-17 19:50 55.05412 -28.44153 37072 ft 510 kts 86°
2026-04-17 19:51 55.05755 -28.31791 37068 ft 510 kts 86°
2026-04-17 19:51 55.06085 -28.19416 37069 ft 510 kts 86°
2026-04-17 19:52 55.06402 -28.07075 37069 ft 510 kts 86°
2026-04-17 19:52 55.06706 -27.94759 37069 ft 511 kts 86°
2026-04-17 19:53 55.06999 -27.82385 37070 ft 511 kts 86°
2026-04-17 19:53 55.07280 -27.69985 37067 ft 511 kts 87°
2026-04-17 19:54 55.07547 -27.57604 37068 ft 511 kts 87°
2026-04-17 19:54 55.07803 -27.45197 37065 ft 511 kts 87°
2026-04-17 19:55 55.08046 -27.32810 37052 ft 511 kts 87°
2026-04-17 19:55 55.08276 -27.20409 37066 ft 511 kts 87°
2026-04-17 19:56 55.08494 -27.08001 37066 ft 511 kts 87°
2026-04-17 19:56 55.08699 -26.95595 37063 ft 511 kts 88°
2026-04-17 19:57 55.08891 -26.83199 37066 ft 511 kts 88°
2026-04-17 19:57 55.09071 -26.70786 37064 ft 511 kts 88°
2026-04-17 19:58 55.09238 -26.58380 37073 ft 512 kts 88°
2026-04-17 19:58 55.09368 -26.48050 37070 ft 512 kts 88°
2026-04-17 19:59 55.09512 -26.35622 37068 ft 512 kts 88°
2026-04-17 19:59 55.09644 -26.23202 37065 ft 512 kts 88°
2026-04-17 20:00 55.09763 -26.10771 37066 ft 512 kts 88°
2026-04-17 20:00 55.09869 -25.98337 37074 ft 512 kts 88°
2026-04-17 20:01 55.09963 -25.85915 37074 ft 512 kts 88°
2026-04-17 20:01 55.10045 -25.73501 37072 ft 511 kts 88°
2026-04-17 20:02 55.10113 -25.61084 37072 ft 511 kts 88°
2026-04-17 20:02 55.10169 -25.48667 37078 ft 511 kts 89°
2026-04-17 20:03 55.10212 -25.36263 37075 ft 510 kts 89°
2026-04-17 20:03 55.10242 -25.23876 37076 ft 510 kts 89°
2026-04-17 20:04 55.10260 -25.11502 37075 ft 510 kts 89°
2026-04-17 20:04 55.10265 -24.99115 37085 ft 510 kts 89°
2026-04-17 20:05 55.10258 -24.86738 37092 ft 510 kts 89°
2026-04-17 20:05 55.10238 -24.74375 37071 ft 508 kts 89°
2026-04-17 20:06 55.10206 -24.62063 37080 ft 507 kts 89°
2026-04-17 20:06 55.10162 -24.49752 37086 ft 507 kts 89°
2026-04-17 20:07 55.10105 -24.37447 37083 ft 507 kts 89°
2026-04-17 20:07 55.10036 -24.25147 37094 ft 507 kts 90°
2026-04-17 20:08 55.09954 -24.12867 37084 ft 505 kts 90°
2026-04-17 20:08 55.09861 -24.00686 37085 ft 505 kts 90°
2026-04-17 20:09 55.09755 -23.88430 37083 ft 505 kts 90°
2026-04-17 20:09 55.09637 -23.76182 37082 ft 505 kts 90°
2026-04-17 20:10 55.09507 -23.63928 37091 ft 505 kts 90°
2026-04-17 20:10 55.09364 -23.51689 37083 ft 503 kts 90°
2026-04-17 20:11 55.09210 -23.39482 37088 ft 503 kts 90°
2026-04-17 20:11 55.09043 -23.27262 37089 ft 503 kts 91°
2026-04-17 20:12 55.08864 -23.15058 37089 ft 503 kts 91°
2026-04-17 20:12 55.08673 -23.02845 37089 ft 503 kts 91°
2026-04-17 20:13 55.08469 -22.90639 37089 ft 503 kts 91°
2026-04-17 20:13 55.08254 -22.78430 37089 ft 503 kts 91°
2026-04-17 20:14 55.08026 -22.66230 37087 ft 503 kts 91°
2026-04-17 20:14 55.07786 -22.54026 37089 ft 503 kts 91°
2026-04-17 20:15 55.07534 -22.41824 37095 ft 503 kts 92°
2026-04-17 20:15 55.07270 -22.29638 37090 ft 502 kts 92°
2026-04-17 20:16 55.06994 -22.17461 37070 ft 502 kts 92°
2026-04-17 20:16 55.06705 -22.05282 37092 ft 502 kts 92°
2026-04-17 20:17 55.06408 -21.93213 37084 ft 502 kts 92°
2026-04-17 20:17 55.06095 -21.81032 37094 ft 502 kts 92°
2026-04-17 20:18 55.05771 -21.68874 37088 ft 501 kts 92°
2026-04-17 20:18 55.05435 -21.56733 37089 ft 501 kts 92°
2026-04-17 20:19 55.05087 -21.44586 37086 ft 501 kts 92°
2026-04-17 20:19 55.04727 -21.32446 37089 ft 501 kts 92°
2026-04-17 20:20 55.04355 -21.20303 37089 ft 501 kts 93°
2026-04-17 20:20 55.03970 -21.08168 37086 ft 501 kts 93°
2026-04-17 20:21 55.03574 -20.96050 37084 ft 501 kts 93°
2026-04-17 20:21 55.03166 -20.83939 37083 ft 501 kts 93°
2026-04-17 20:22 55.02746 -20.71811 37083 ft 501 kts 93°
2026-04-17 20:22 55.02314 -20.59701 37085 ft 501 kts 94°
2026-04-17 20:23 55.01870 -20.47598 37081 ft 500 kts 94°
2026-04-17 20:23 55.01415 -20.35506 37086 ft 500 kts 94°
2026-04-17 20:24 55.00947 -20.23409 37082 ft 500 kts 94°
2026-04-17 20:24 55.00468 -20.11329 37083 ft 500 kts 94°
2026-04-17 20:25 55.00096 -19.99225 37082 ft 500 kts 89°
2026-04-17 20:25 55.00242 -19.87219 37078 ft 499 kts 88°
2026-04-17 20:26 55.00472 -19.75149 37077 ft 498 kts 88°
2026-04-17 20:26 55.00703 -19.63085 37078 ft 499 kts 88°
2026-04-17 20:27 55.00915 -19.51010 37072 ft 499 kts 88°
2026-04-17 20:27 55.01109 -19.38933 37070 ft 499 kts 88°
2026-04-17 20:28 55.01290 -19.26869 37066 ft 498 kts 88°
2026-04-17 20:28 55.01458 -19.14802 37067 ft 498 kts 88°
2026-04-17 20:29 55.01616 -19.02715 37069 ft 498 kts 88°
2026-04-17 20:29 55.01761 -18.90638 37069 ft 498 kts 88°
2026-04-17 20:30 55.01956 -18.72530 37063 ft 499 kts 89°
2026-04-17 20:30 55.02072 -18.60439 37058 ft 498 kts 89°
2026-04-17 20:31 55.02175 -18.48351 37056 ft 499 kts 89°
2026-04-17 20:31 55.02267 -18.36267 37050 ft 499 kts 89°
2026-04-17 20:32 55.02347 -18.24183 37061 ft 499 kts 89°
2026-04-17 20:32 55.02414 -18.12083 37050 ft 500 kts 89°
2026-04-17 20:33 55.02469 -17.99978 37048 ft 500 kts 89°
2026-04-17 20:33 55.02513 -17.87875 37043 ft 499 kts 90°
2026-04-17 20:34 55.02544 -17.75782 37040 ft 499 kts 90°
2026-04-17 20:34 55.02564 -17.63668 37036 ft 499 kts 90°
2026-04-17 20:35 55.02571 -17.51634 37033 ft 499 kts 90°
2026-04-17 20:35 55.02566 -17.39514 37036 ft 500 kts 90°
2026-04-17 20:36 55.02550 -17.27399 37033 ft 501 kts 90°
2026-04-17 20:36 55.02522 -17.15277 37033 ft 501 kts 90°
2026-04-17 20:37 55.02481 -17.03153 37024 ft 500 kts 90°
2026-04-17 20:37 55.02429 -16.91034 37024 ft 500 kts 90°
2026-04-17 20:38 55.02364 -16.78901 37023 ft 501 kts 91°
2026-04-17 20:38 55.02287 -16.66778 37024 ft 500 kts 91°
2026-04-17 20:39 55.02199 -16.54640 37016 ft 500 kts 91°
2026-04-17 20:39 55.02097 -16.42527 37020 ft 500 kts 91°
2026-04-17 20:40 55.01985 -16.30427 37013 ft 500 kts 91°
2026-04-17 20:40 55.01860 -16.18314 37010 ft 500 kts 91°
2026-04-17 20:41 55.01724 -16.06224 37007 ft 500 kts 91°
2026-04-17 20:41 55.01576 -15.94123 37003 ft 498 kts 92°
2026-04-17 20:42 55.01416 -15.82041 36998 ft 498 kts 92°
2026-04-17 20:42 55.01242 -15.69959 36996 ft 498 kts 92°
2026-04-17 20:43 55.01057 -15.57881 36993 ft 499 kts 92°
2026-04-17 20:43 55.00861 -15.45796 36987 ft 500 kts 92°
2026-04-17 20:44 55.00654 -15.33732 36993 ft 499 kts 93°
2026-04-17 20:44 55.00472 -15.23707 36979 ft 497 kts 93°
2026-04-17 20:45 55.00242 -15.11669 36981 ft 497 kts 93°
2026-04-17 20:45 54.99999 -14.99612 36972 ft 498 kts 93°
2026-04-17 20:46 54.99934 -14.87561 36975 ft 498 kts 90°
2026-04-17 20:46 55.00030 -14.75517 36964 ft 498 kts 90°
2026-04-17 20:47 55.00096 -14.63570 36974 ft 498 kts 91°
2026-04-17 20:47 55.00117 -14.51431 36958 ft 497 kts 91°
2026-04-17 20:48 55.00112 -14.39584 36957 ft 486 kts 91°
2026-04-17 20:48 55.00093 -14.27833 36954 ft 484 kts 92°
2026-04-17 20:49 55.00064 -14.16097 36955 ft 485 kts 92°
2026-04-17 20:49 54.99962 -14.04369 36950 ft 484 kts 96°
2026-04-17 20:50 54.99450 -13.98604 36947 ft 479 kts 107°
2026-04-17 20:50 54.98488 -13.93070 36947 ft 477 kts 110°
2026-04-17 20:50 54.96217 -13.82217 36944 ft 476 kts 114°
2026-04-17 20:51 54.93820 -13.71452 36947 ft 479 kts 113°
2026-04-17 20:51 54.91416 -13.60679 36939 ft 477 kts 114°
2026-04-17 20:52 54.89030 -13.49937 36947 ft 478 kts 113°
2026-04-17 20:52 54.86639 -13.39187 36941 ft 476 kts 114°
2026-04-17 20:53 54.84244 -13.28467 36946 ft 477 kts 114°
2026-04-17 20:53 54.81835 -13.17749 36940 ft 476 kts 115°
2026-04-17 20:54 54.79422 -13.07056 36940 ft 478 kts 114°
2026-04-17 20:54 54.76998 -12.96368 36945 ft 476 kts 115°
2026-04-17 20:55 54.74566 -12.85713 36944 ft 477 kts 114°
2026-04-17 20:55 54.72123 -12.75059 36939 ft 475 kts 115°
2026-04-17 20:56 54.69678 -12.64443 36949 ft 476 kts 114°
2026-04-17 20:56 54.67218 -12.53821 36939 ft 475 kts 115°
2026-04-17 20:57 54.64771 -12.43305 36942 ft 476 kts 114°
2026-04-17 20:57 54.62299 -12.32736 36935 ft 474 kts 115°
2026-04-17 20:58 54.59820 -12.22183 36940 ft 475 kts 115°
2026-04-17 20:58 54.57331 -12.11643 36934 ft 474 kts 115°
2026-04-17 20:59 54.54835 -12.01121 36944 ft 475 kts 115°
2026-04-17 20:59 54.52324 -11.90602 36942 ft 474 kts 115°
2026-04-17 21:00 54.49812 -11.80114 36951 ft 474 kts 116°
2026-04-17 21:00 54.47290 -11.69641 36956 ft 474 kts 115°
2026-04-17 21:01 54.44760 -11.59188 36927 ft 474 kts 116°
2026-04-17 21:01 54.42219 -11.48738 36944 ft 474 kts 116°
2026-04-17 21:02 54.39670 -11.38301 36947 ft 474 kts 116°
2026-04-17 21:02 54.37110 -11.27876 36950 ft 474 kts 116°
2026-04-17 21:03 54.34545 -11.17472 36952 ft 474 kts 116°
2026-04-17 21:03 54.31967 -11.07073 36952 ft 474 kts 116°
2026-04-17 21:04 54.29383 -10.96692 36953 ft 474 kts 116°
2026-04-17 21:04 54.26805 -10.86388 36952 ft 474 kts 116°
2026-04-17 21:05 54.24203 -10.76034 36959 ft 474 kts 116°
2026-04-17 21:05 54.21587 -10.65676 36946 ft 475 kts 116°
2026-04-17 21:06 54.18967 -10.55344 36958 ft 474 kts 117°
2026-04-17 21:06 54.16340 -10.45036 36969 ft 473 kts 117°
2026-04-17 21:07 54.13705 -10.34744 36961 ft 473 kts 117°
2026-04-17 21:07 54.11062 -10.24468 36975 ft 473 kts 117°
2026-04-17 21:08 54.08410 -10.14204 36972 ft 473 kts 117°
2026-04-17 21:08 54.05750 -10.03956 36967 ft 474 kts 117°
2026-04-17 21:09 54.03078 -9.93710 36980 ft 474 kts 117°
2026-04-17 21:09 54.00396 -9.83472 36980 ft 474 kts 118°
2026-04-17 21:10 53.97709 -9.73261 36980 ft 474 kts 118°
2026-04-17 21:10 53.95012 -9.63055 36987 ft 474 kts 118°
2026-04-17 21:11 53.92307 -9.52867 36983 ft 474 kts 118°
2026-04-17 21:11 53.89592 -9.42687 36978 ft 473 kts 118°
2026-04-17 21:12 53.86892 -9.32605 36989 ft 473 kts 118°
2026-04-17 21:12 53.84163 -9.22465 36991 ft 473 kts 118°
2026-04-17 21:13 53.81428 -9.12346 36991 ft 473 kts 118°
2026-04-17 21:13 53.78681 -9.02224 36996 ft 473 kts 118°
2026-04-17 21:14 53.75925 -8.92120 36996 ft 473 kts 119°
2026-04-17 21:14 53.73165 -8.82042 36993 ft 473 kts 119°
2026-04-17 21:15 53.70392 -8.71961 37007 ft 473 kts 119°
2026-04-17 21:15 53.67616 -8.61910 36995 ft 473 kts 120°
2026-04-17 21:16 53.64828 -8.51863 36994 ft 473 kts 120°
2026-04-17 21:16 53.62029 -8.41821 37002 ft 473 kts 120°
2026-04-17 21:17 53.59226 -8.31801 37023 ft 473 kts 120°
2026-04-17 21:17 53.56414 -8.21794 37007 ft 473 kts 120°
2026-04-17 21:18 53.53596 -8.11812 37012 ft 472 kts 120°
2026-04-17 21:18 53.50769 -8.01844 37011 ft 472 kts 120°
2026-04-17 21:19 53.47956 -7.91964 37009 ft 472 kts 120°
2026-04-17 21:19 53.45115 -7.82026 37016 ft 472 kts 120°
2026-04-17 21:20 53.42265 -7.72100 37010 ft 472 kts 121°
2026-04-17 21:20 53.39408 -7.62191 37020 ft 472 kts 121°
2026-04-17 21:21 53.36546 -7.52306 37017 ft 472 kts 121°
2026-04-17 21:21 53.33676 -7.42437 37018 ft 472 kts 121°
2026-04-17 21:22 53.30797 -7.32579 37025 ft 471 kts 121°
2026-04-17 21:22 53.27914 -7.22744 37023 ft 471 kts 121°
2026-04-17 21:23 53.25021 -7.12918 37012 ft 471 kts 121°
2026-04-17 21:23 53.22119 -7.03105 37022 ft 471 kts 121°
2026-04-17 21:24 53.19211 -6.93309 37023 ft 471 kts 121°
2026-04-17 21:24 53.16294 -6.83522 37019 ft 471 kts 122°
2026-04-17 21:25 53.13370 -6.73756 37027 ft 471 kts 122°
2026-04-17 21:25 53.10439 -6.64001 37045 ft 471 kts 122°
2026-04-17 21:26 53.07499 -6.54259 37027 ft 472 kts 122°
2026-04-17 21:26 53.04564 -6.44576 37031 ft 472 kts 122°
2026-04-17 21:27 53.01580 -6.34766 37035 ft 472 kts 122°
2026-04-17 21:27 52.98630 -6.25110 37043 ft 472 kts 122°
2026-04-17 21:28 52.95653 -6.15402 37045 ft 472 kts 122°
2026-04-17 21:28 52.92667 -6.05704 37031 ft 472 kts 122°
2026-04-17 21:29 52.89677 -5.96031 37054 ft 471 kts 122°
2026-04-17 21:29 52.86681 -5.86380 37053 ft 471 kts 122°
2026-04-17 21:30 52.83677 -5.76744 37062 ft 472 kts 123°
2026-04-17 21:30 52.80663 -5.67111 37067 ft 472 kts 123°
2026-04-17 21:31 52.77641 -5.57491 37070 ft 472 kts 123°
2026-04-17 21:31 52.74612 -5.47883 37069 ft 472 kts 123°
2026-04-17 21:32 52.71607 -5.38258 37080 ft 472 kts 123°
2026-04-17 21:32 52.68609 -5.28627 37081 ft 472 kts 123°
2026-04-17 21:33 52.65602 -5.19023 37083 ft 472 kts 123°
2026-04-17 21:33 52.62580 -5.09423 37088 ft 473 kts 123°
2026-04-17 21:34 52.59566 -4.99895 37072 ft 473 kts 123°
2026-04-17 21:35 52.55003 -4.85536 37103 ft 472 kts 123°
2026-04-17 21:35 52.51954 -4.75989 37105 ft 472 kts 123°
2026-04-17 21:36 52.49417 -4.68071 37104 ft 472 kts 123°
2026-04-17 21:36 52.46356 -4.58555 37114 ft 472 kts 123°
2026-04-17 21:37 52.43287 -4.49051 37104 ft 471 kts 124°
2026-04-17 21:37 52.40214 -4.39571 37111 ft 471 kts 124°
2026-04-17 21:38 52.37134 -4.30104 37128 ft 471 kts 124°
2026-04-17 21:38 52.34049 -4.20660 37128 ft 471 kts 124°
2026-04-17 21:39 52.30957 -4.11232 37134 ft 471 kts 124°
2026-04-17 21:39 52.27857 -4.01815 37137 ft 470 kts 124°
2026-04-17 21:40 52.24753 -3.92419 37132 ft 470 kts 125°
2026-04-17 21:40 52.21642 -3.83037 37120 ft 470 kts 125°
2026-04-17 21:41 52.18526 -3.73676 37166 ft 470 kts 125°
2026-04-17 21:41 52.15399 -3.64322 37146 ft 470 kts 125°
2026-04-17 21:42 52.12265 -3.54979 37151 ft 470 kts 125°
2026-04-17 21:42 52.09122 -3.45646 37155 ft 470 kts 125°
2026-04-17 21:43 52.05997 -3.36400 37158 ft 470 kts 126°
2026-04-17 21:43 52.02839 -3.27091 37157 ft 470 kts 126°
2026-04-17 21:44 51.99675 -3.17797 37114 ft 470 kts 126°
2026-04-17 21:44 51.96502 -3.08512 37118 ft 470 kts 126°
2026-04-17 21:45 51.93322 -2.99241 37099 ft 470 kts 126°
2026-04-17 21:45 51.90135 -2.89986 37087 ft 470 kts 127°
2026-04-17 21:46 51.86943 -2.80750 37161 ft 470 kts 127°
2026-04-17 21:46 51.83748 -2.71540 37158 ft 469 kts 127°
2026-04-17 21:47 51.80547 -2.62345 37162 ft 469 kts 127°
2026-04-17 21:47 51.77338 -2.53162 37141 ft 469 kts 127°
2026-04-17 21:48 51.74124 -2.43994 37161 ft 469 kts 127°
2026-04-17 21:48 51.70904 -2.34846 37159 ft 468 kts 127°
2026-04-17 21:49 51.67683 -2.25728 37164 ft 468 kts 128°
2026-04-17 21:49 51.64457 -2.16629 37166 ft 468 kts 128°
2026-04-17 21:50 51.61247 -2.07607 37161 ft 468 kts 128°
2026-04-17 21:50 51.58009 -1.98539 37165 ft 468 kts 128°
2026-04-17 21:51 51.54761 -1.89475 37146 ft 467 kts 128°
2026-04-17 21:51 51.51527 -1.80474 37152 ft 464 kts 128°
2026-04-17 21:52 51.48314 -1.71505 37159 ft 466 kts 125°
2026-04-17 21:52 51.46075 -1.61582 37158 ft 480 kts 111°
2026-04-17 21:53 51.44559 -1.51131 37164 ft 483 kts 109°
2026-04-17 21:53 51.43163 -1.40595 37155 ft 483 kts 109°
2026-04-17 21:54 51.41748 -1.30101 37161 ft 481 kts 109°
2026-04-17 21:54 51.40300 -1.19653 37164 ft 481 kts 109°
2026-04-17 21:55 51.39341 -1.08970 37163 ft 487 kts 102°
2026-04-17 21:55 51.38746 -0.98153 37165 ft 488 kts 101°
2026-04-17 21:56 51.38200 -0.87317 37181 ft 489 kts 101°
2026-04-17 21:56 51.37642 -0.76476 37180 ft 488 kts 101°
2026-04-17 21:57 51.37063 -0.65658 37181 ft 488 kts 101°
2026-04-17 21:57 51.36469 -0.54838 37188 ft 488 kts 101°
2026-04-17 21:58 51.35870 -0.44103 37178 ft 488 kts 101°
2026-04-17 21:58 51.35257 -0.33303 37190 ft 488 kts 101°
2026-04-17 21:59 51.34633 -0.22497 37175 ft 488 kts 101°
2026-04-17 21:59 51.34001 -0.11701 37177 ft 488 kts 101°
2026-04-17 22:00 51.33359 -0.00914 37156 ft 487 kts 101°
2026-04-17 22:00 51.32645 0.09840 37032 ft 484 kts 104°
2026-04-17 22:01 51.31613 0.20458 36955 ft 483 kts 105°
2026-04-17 22:01 51.30526 0.31041 36880 ft 483 kts 105°
2026-04-17 22:02 51.29476 0.41633 36839 ft 483 kts 105°
2026-04-17 22:02 51.28445 0.52236 36841 ft 483 kts 104°
2026-04-17 22:03 51.27412 0.62823 36900 ft 482 kts 104°
2026-04-17 22:03 51.26369 0.73409 36973 ft 482 kts 104°
2026-04-17 22:04 51.25315 0.83980 37063 ft 482 kts 104°
2026-04-17 22:04 51.24251 0.94540 37197 ft 482 kts 105°
2026-04-17 22:05 51.23177 1.05105 37193 ft 482 kts 104°
2026-04-17 22:05 51.22094 1.15659 37199 ft 482 kts 104°
2026-04-17 22:06 51.21010 1.26138 37200 ft 482 kts 104°
2026-04-17 22:06 51.19908 1.36675 37193 ft 482 kts 104°
2026-04-17 22:07 51.18797 1.47213 37191 ft 482 kts 104°
2026-04-17 22:07 51.17676 1.57749 37195 ft 482 kts 104°
2026-04-17 22:08 51.16546 1.68280 37200 ft 482 kts 104°
2026-04-17 22:08 51.15406 1.78807 37196 ft 482 kts 104°
2026-04-17 22:09 51.14258 1.89324 37213 ft 482 kts 104°
2026-04-17 22:09 51.13161 1.99867 37206 ft 484 kts 99°
2026-04-17 22:10 51.12505 2.10550 37205 ft 485 kts 98°
2026-04-17 22:10 51.11927 2.21256 37203 ft 486 kts 98°
2026-04-17 22:11 51.11353 2.31970 37202 ft 486 kts 98°
2026-04-17 22:11 51.10765 2.42666 37199 ft 485 kts 98°
2026-04-17 22:12 51.10163 2.53322 37206 ft 483 kts 98°
2026-04-17 22:12 51.09470 2.63940 37205 ft 481 kts 104°
2026-04-17 22:13 51.07873 2.74205 37205 ft 478 kts 109°
2026-04-17 22:13 51.06047 2.84360 37194 ft 477 kts 110°
2026-04-17 22:14 51.04179 2.94465 37208 ft 476 kts 110°
2026-04-17 22:14 51.02328 3.04483 37207 ft 476 kts 110°
2026-04-17 22:15 51.00467 3.14560 37205 ft 476 kts 110°
2026-04-17 22:15 50.98602 3.24630 37204 ft 476 kts 110°
2026-04-17 22:16 50.96727 3.34691 37199 ft 475 kts 109°
2026-04-17 22:16 50.94855 3.44690 37203 ft 472 kts 109°
2026-04-17 22:17 50.92977 3.54668 37203 ft 472 kts 109°
2026-04-17 22:17 50.91091 3.64628 37203 ft 472 kts 109°
2026-04-17 22:18 50.89188 3.74574 37203 ft 472 kts 110°
2026-04-17 22:18 50.87262 3.84499 37202 ft 471 kts 110°
2026-04-17 22:19 50.85333 3.94403 37204 ft 471 kts 110°
2026-04-17 22:19 50.83401 4.04288 37205 ft 470 kts 110°
2026-04-17 22:20 50.81460 4.14168 37207 ft 470 kts 110°
2026-04-17 22:20 50.79511 4.24042 37201 ft 470 kts 110°
2026-04-17 22:21 50.77558 4.33892 37210 ft 469 kts 110°
2026-04-17 22:21 50.75610 4.43662 37210 ft 469 kts 110°
2026-04-17 22:22 50.73641 4.53487 37208 ft 469 kts 110°
2026-04-17 22:22 50.71668 4.63308 37208 ft 470 kts 110°
2026-04-17 22:23 50.69755 4.73155 37200 ft 469 kts 109°
2026-04-17 22:23 50.67858 4.83000 37204 ft 469 kts 109°
2026-04-17 22:24 50.65947 4.92824 37207 ft 469 kts 110°
2026-04-17 22:24 50.63969 5.02610 37207 ft 469 kts 111°
2026-04-17 22:25 50.62284 5.10709 37197 ft 468 kts 111°
2026-04-17 22:25 50.60255 5.20445 37204 ft 467 kts 111°
2026-04-17 22:26 50.58231 5.30168 37205 ft 467 kts 111°
2026-04-17 22:26 50.56205 5.39872 37203 ft 467 kts 111°
2026-04-17 22:27 50.54173 5.49564 37205 ft 467 kts 111°
2026-04-17 22:27 50.52131 5.59255 37203 ft 467 kts 111°
2026-04-17 22:28 50.50149 5.68958 37203 ft 466 kts 109°
2026-04-17 22:28 50.48353 5.78736 37207 ft 466 kts 108°
2026-04-17 22:29 50.46567 5.88515 37210 ft 466 kts 108°
2026-04-17 22:29 50.45665 5.93370 36899 ft 463 kts 109°
2026-04-17 22:29 50.44754 5.98225 36257 ft 465 kts 109°
2026-04-17 22:29 50.43831 6.03102 35617 ft 467 kts 109°
2026-04-17 22:30 50.42900 6.07990 34981 ft 469 kts 109°
2026-04-17 22:30 50.41965 6.12892 34392 ft 470 kts 109°
2026-04-17 22:30 50.41026 6.17802 33734 ft 470 kts 109°
2026-04-17 22:30 50.40082 6.22723 33013 ft 472 kts 109°
2026-04-17 22:31 50.39134 6.27659 32254 ft 474 kts 109°
2026-04-17 22:31 50.38181 6.32607 31594 ft 474 kts 109°
2026-04-17 22:31 50.37230 6.37546 31017 ft 473 kts 109°
2026-04-17 22:31 50.36489 6.42563 30469 ft 473 kts 100°
2026-04-17 22:32 50.36060 6.47657 29883 ft 471 kts 98°
2026-04-17 22:32 50.35705 6.52746 29315 ft 468 kts 97°
2026-04-17 22:32 50.35384 6.57790 28782 ft 464 kts 97°
2026-04-17 22:32 50.35074 6.62801 28254 ft 460 kts 97°
2026-04-17 22:33 50.34766 6.67768 27736 ft 457 kts 97°
2026-04-17 22:33 50.34456 6.72699 27228 ft 453 kts 97°
2026-04-17 22:33 50.34131 6.77586 26721 ft 450 kts 98°
2026-04-17 22:33 50.33695 6.82408 26237 ft 446 kts 100°
2026-04-17 22:34 50.33232 6.87193 25771 ft 443 kts 100°
2026-04-17 22:34 50.32777 6.91933 25302 ft 439 kts 99°
2026-04-17 22:34 50.32337 6.96584 24831 ft 437 kts 99°
2026-04-17 22:34 50.31896 7.01265 24414 ft 433 kts 99°
2026-04-17 22:35 50.31459 7.05917 24233 ft 432 kts 99°
2026-04-17 22:35 50.31022 7.10572 24209 ft 433 kts 99°
2026-04-17 22:35 50.30582 7.15236 24209 ft 433 kts 99°
2026-04-17 22:35 50.30142 7.19894 24209 ft 433 kts 99°
2026-04-17 22:36 50.29701 7.24543 24209 ft 433 kts 99°
2026-04-17 22:36 50.29257 7.29200 24208 ft 433 kts 99°
2026-04-17 22:36 50.28812 7.33849 24207 ft 433 kts 99°
2026-04-17 22:36 50.28365 7.38501 24202 ft 433 kts 99°
2026-04-17 22:37 50.27917 7.43147 24202 ft 432 kts 99°
2026-04-17 22:37 50.27468 7.47782 24203 ft 431 kts 99°
2026-04-17 22:37 50.27017 7.52416 24199 ft 431 kts 99°
2026-04-17 22:37 50.26564 7.57049 24199 ft 431 kts 99°
2026-04-17 22:38 50.26110 7.61675 24200 ft 431 kts 99°
2026-04-17 22:38 50.25653 7.66304 24199 ft 431 kts 99°
2026-04-17 22:38 50.25090 7.70906 24197 ft 431 kts 106°
2026-04-17 22:38 50.24037 7.75258 24162 ft 427 kts 118°
2026-04-17 22:39 50.22409 7.79070 23707 ft 420 kts 134°
2026-04-17 22:39 50.20338 7.82259 23123 ft 417 kts 139°
2026-04-17 22:39 50.16036 7.88244 22047 ft 412 kts 140°
2026-04-17 22:40 50.13929 7.91159 21569 ft 408 kts 140°
2026-04-17 22:40 50.11789 7.94122 21096 ft 405 kts 140°
2026-04-17 22:40 50.09693 7.97025 20639 ft 402 kts 140°
2026-04-17 22:40 50.07613 7.99904 20151 ft 399 kts 140°
2026-04-17 22:41 50.05574 8.02725 19713 ft 396 kts 140°
2026-04-17 22:41 50.03586 8.05474 19248 ft 394 kts 140°
2026-04-17 22:41 50.01549 8.08286 18802 ft 390 kts 140°
2026-04-17 22:41 49.99524 8.11078 18368 ft 387 kts 140°
2026-04-17 22:42 49.97514 8.13846 17867 ft 385 kts 140°
2026-04-17 22:42 49.95521 8.16587 17383 ft 382 kts 140°
2026-04-17 22:42 49.93540 8.19309 16909 ft 379 kts 140°
2026-04-17 22:42 49.91600 8.22051 16429 ft 377 kts 136°
2026-04-17 22:43 49.89996 8.25261 15922 ft 377 kts 120°
2026-04-17 22:43 49.89054 8.29029 15492 ft 376 kts 102°
2026-04-17 22:43 49.88991 8.33063 15060 ft 374 kts 81°
2026-04-17 22:43 49.89733 8.36893 14620 ft 371 kts 67°
2026-04-17 22:44 49.90686 8.40593 14078 ft 366 kts 68°
2026-04-17 22:44 49.91599 8.44230 13050 ft 357 kts 69°
2026-04-17 22:44 49.92476 8.47796 11884 ft 351 kts 69°
2026-04-17 22:44 49.93332 8.51313 10960 ft 346 kts 70°
2026-04-17 22:45 49.94167 8.54764 10430 ft 337 kts 70°
2026-04-17 22:45 49.94960 8.58036 10171 ft 307 kts 70°
2026-04-17 22:45 49.95686 8.61064 9480 ft 295 kts 71°
2026-04-17 22:45 49.96390 8.64024 8641 ft 291 kts 71°
2026-04-17 22:46 49.97088 8.66956 7828 ft 287 kts 71°
2026-04-17 22:46 49.97773 8.69841 7047 ft 283 kts 70°
2026-04-17 22:46 49.98451 8.72692 6240 ft 280 kts 70°
2026-04-17 22:46 49.99119 8.75505 5484 ft 277 kts 70°
2026-04-17 22:47 49.99784 8.78309 4964 ft 276 kts 70°
2026-04-17 22:47 50.00441 8.81083 4660 ft 272 kts 70°
2026-04-17 22:47 50.01091 8.83826 4381 ft 267 kts 70°
2026-04-17 22:47 50.01726 8.86494 4229 ft 258 kts 70°
2026-04-17 22:48 50.02334 8.89077 4083 ft 250 kts 70°
2026-04-17 22:48 50.02920 8.91566 3990 ft 240 kts 70°
2026-04-17 22:48 50.03494 8.93956 3990 ft 235 kts 68°
2026-04-17 22:48 50.04329 8.96129 3994 ft 235 kts 49°
2026-04-17 22:49 50.05633 8.97621 3998 ft 235 kts 21°
2026-04-17 22:49 50.07229 8.97947 3992 ft 234 kts 348°
2026-04-17 22:49 50.08719 8.96984 3995 ft 233 kts 330°
2026-04-17 22:49 50.10128 8.95735 3993 ft 234 kts 328°
2026-04-17 22:50 50.11291 8.93998 3989 ft 233 kts 296°
2026-04-17 22:50 50.11600 8.91641 4013 ft 216 kts 268°
2026-04-17 22:50 50.11356 8.89450 3997 ft 196 kts 251°
2026-04-17 22:50 50.10908 8.87571 3988 ft 173 kts 249°
2026-04-17 22:51 50.10495 8.85876 3979 ft 165 kts 249°
2026-04-17 22:51 50.10102 8.84203 3828 ft 164 kts 250°
2026-04-17 22:51 50.09719 8.82559 3597 ft 164 kts 250°
2026-04-17 22:51 50.09321 8.80893 3365 ft 164 kts 249°
2026-04-17 22:52 50.08914 8.79226 3108 ft 165 kts 249°
2026-04-17 22:52 50.08503 8.77581 2882 ft 161 kts 248°
2026-04-17 22:52 50.08091 8.75952 2558 ft 163 kts 248°
2026-04-17 22:52 50.07684 8.74306 2261 ft 160 kts 250°
2026-04-17 22:53 50.07314 8.72701 2083 ft 154 kts 251°
2026-04-17 22:53 50.06972 8.71152 1960 ft 149 kts 251°
2026-04-17 22:53 50.06631 8.69635 1811 ft 148 kts 251°
2026-04-17 22:53 50.06279 8.68123 1677 ft 151 kts 250°
2026-04-17 22:54 50.05899 8.66582 1445 ft 155 kts 250°
2026-04-17 22:54 50.05517 8.64980 1199 ft 158 kts 250°
2026-04-17 22:54 50.05139 8.63385 1029 ft 157 kts 250°
2026-04-17 22:54 50.04753 8.61802 831 ft 157 kts 249°
2026-04-17 22:55 50.04377 8.60203 626 ft 157 kts 250°
2026-04-17 22:55 50.04007 8.58674 408 ft 145 kts 250°
2026-04-17 22:55 50.03674 8.57287 365 ft 126 kts 250°
2026-04-17 22:55 50.03436 8.56266 359 ft 75 kts 249°
2026-04-17 22:56 50.03333 8.55830 354 ft 25 kts 254°
2026-04-17 22:56 50.03309 8.55558 347 ft 25 kts 270°
2026-04-17 22:56 50.03337 8.55299 350 ft 24 kts 279°
2026-04-17 22:56 50.03346 8.55224 354 ft 2 kts 282°
2026-04-17 22:57 50.03352 8.55194 357 ft 4 kts 290°
2026-04-17 22:57 50.03365 8.55171 355 ft 1 kts 335°
2026-04-17 22:57 50.03376 8.55171 354 ft 3 kts 354°
2026-04-17 22:57 50.03403 8.55180 352 ft 5 kts 25°
2026-04-17 22:58 50.03430 8.55224 357 ft 7 kts 56°
2026-04-17 22:58 50.03459 8.55332 354 ft 14 kts 70°
2026-04-17 22:58 50.03516 8.55489 354 ft 19 kts 34°
2026-04-17 22:58 50.03615 8.55530 356 ft 13 kts
2026-04-17 22:59 50.03721 8.55552 356 ft 21 kts
2026-04-17 22:59 50.03889 8.55491 360 ft 19 kts 345°
2026-04-17 22:59 50.03910 8.55490 358 ft 3 kts 358°
2026-04-17 22:59 50.03951 8.55477 360 ft 9 kts 341°
2026-04-17 23:00 50.04022 8.55439 358 ft 13 kts 340°
2026-04-17 23:00 50.04110 8.55455 362 ft 15 kts 50°
2026-04-17 23:00 50.04156 8.55607 363 ft 16 kts 69°
2026-04-17 23:00 50.04197 8.55774 364 ft 17 kts 69°
2026-04-17 23:01 50.04251 8.55938 365 ft 17 kts 43°
2026-04-17 23:01 50.04353 8.55930 363 ft 13 kts 343°
2026-04-17 23:01 50.04433 8.55921 362 ft 12 kts
2026-04-17 23:01 50.04523 8.55957 362 ft 14 kts 20°
2026-04-17 23:02 50.04579 8.56076 367 ft 15 kts 67°
2026-04-17 23:02 50.04619 8.56230 363 ft 13 kts 69°
2026-04-17 23:02 50.04652 8.56308 369 ft 4 kts 33°
2026-04-17 23:02 50.04666 8.56316 363 ft 0 kts 16°
2026-04-17 23:03 50.04671 8.56315 363 ft 1 kts
2026-04-17 23:03 50.04687 8.56302 365 ft 4 kts 331°
2026-04-17 23:03 50.04715 8.56282 366 ft 4 kts 338°
2026-04-17 23:03 50.04721 8.56278 367 ft 0 kts 339°
2026-04-17 23:04 50.04726 8.56275 367 ft 0 kts 339°
2026-04-17 23:04 50.04727 8.56275 367 ft 0 kts 339°